Latitude: N 50° 09' 49" Longitude: W 05° 11' 53" Elevation: 168m ASL

There are 30 visitors online

Adverts

<- Previous Day | Today | Next Day ->

All Data for 19 June 2017

Time
A - D
Temp
A - D
Dew Point
A - D
Humidity
A - D
Pressure
A - D
Wind
A - D
Wind Dir Gust
A - D
Rain Rate
A - D
Rain Total
00:00 17.1 15.8 92 1020.8 2.2 N 2.2 0.0 0.0
00:01 17.1 15.8 92 1020.6 2.2 N 2.2 0.0 0.0
00:02 17.1 15.8 92 1020.6 2.2 N 2.2 0.0 0.0
00:03 17.1 15.8 92 1020.7 2.2 N 2.2 0.0 0.0
00:04 17.1 15.8 92 1020.7 2.2 N 2.2 0.0 0.0
00:05 17.1 15.8 92 1020.6 2.2 N 2.2 0.0 0.0
00:06 17.1 15.8 92 1020.5 2.2 N 2.2 0.0 0.0
00:07 17.1 15.8 92 1020.5 2.2 N 2.2 0.0 0.0
00:08 17.1 16.0 93 1020.5 1.6 N 2.2 0.0 0.0
00:09 17.1 16.0 93 1020.7 2.2 N 2.2 0.0 0.0
00:10 17.1 16.0 93 1020.5 2.2 N 2.2 0.0 0.0
00:11 17.1 16.0 93 1020.6 3.8 N 3.8 0.0 0.0
00:12 17.1 16.0 93 1020.5 3.1 N 3.8 0.0 0.0
00:13 17.1 16.0 93 1020.5 2.2 N 3.8 0.0 0.0
00:14 17.1 16.0 93 1020.5 2.2 N 3.8 0.0 0.0
00:15 17.1 16.0 93 1020.5 2.2 N 3.8 0.0 0.0
00:16 17.1 16.0 93 1020.4 2.2 N 3.8 0.0 0.0
00:17 17.1 16.0 93 1020.5 3.1 N 3.8 0.0 0.0
00:18 17.1 16.0 93 1020.4 2.2 N 3.8 0.0 0.0
00:19 17.1 16.0 93 1020.5 2.2 N 3.8 0.0 0.0
00:20 17.1 16.0 93 1020.5 3.1 N 3.8 0.0 0.0
00:21 17.1 16.0 93 1020.4 2.2 N 3.1 0.0 0.0
00:22 17.1 16.0 93 1020.5 2.2 N 3.1 0.0 0.0
00:23 17.1 16.0 93 1020.5 3.1 N 3.1 0.0 0.0
00:24 17.1 16.0 93 1020.5 2.2 N 3.1 0.0 0.0
00:25 17.1 16.1 94 1020.4 3.1 N 3.1 0.0 0.0
00:26 17.1 16.0 93 1020.5 2.2 N 3.1 0.0 0.0
00:27 17.1 16.1 94 1020.5 2.2 N 3.1 0.0 0.0
00:28 17.1 16.1 94 1020.5 3.8 N 3.8 0.0 0.0
00:29 17.1 16.1 94 1020.5 3.1 N 3.8 0.0 0.0
00:30 17.1 16.1 94 1020.4 2.2 N 3.8 0.0 0.0
00:31 17.1 16.1 94 1020.7 2.2 N 3.8 0.0 0.0
00:32 17.1 16.0 93 1020.3 3.1 N 3.8 0.0 0.0
00:33 17.1 16.1 94 1020.4 2.2 N 3.8 0.0 0.0
00:34 17.1 16.1 94 1020.4 2.2 N 3.8 0.0 0.0
00:35 17.1 16.1 94 1020.4 1.6 N 3.8 0.0 0.0
00:36 17.1 16.1 94 1020.4 3.1 N 3.8 0.0 0.0
00:37 17.1 16.1 94 1020.5 2.2 N 3.8 0.0 0.0
00:38 17.1 16.1 94 1020.5 2.2 N 3.8 0.0 0.0
00:39 17.1 16.1 94 1020.5 2.2 N 3.1 0.0 0.0
00:40 17.1 16.1 94 1020.3 3.1 N 3.1 0.0 0.0
00:41 17.1 16.1 94 1020.3 3.1 N 3.1 0.0 0.0
00:42 17.1 16.1 94 1020.5 3.1 N 3.1 0.0 0.0
00:43 17.1 16.1 94 1020.4 1.6 N 3.1 0.0 0.0
00:44 17.0 16.0 94 1020.5 2.2 N 3.1 0.0 0.0
00:45 17.0 16.0 94 1020.4 2.2 N 3.1 0.0 0.0
00:46 17.0 16.0 94 1020.5 2.2 N 3.1 0.0 0.0
00:47 17.0 16.0 94 1020.4 2.2 N 3.1 0.0 0.0
00:48 17.0 16.0 94 1020.4 2.2 N 3.1 0.0 0.0
00:49 17.0 16.0 94 1020.4 2.2 N 3.1 0.0 0.0
00:50 17.0 16.0 94 1020.4 2.2 N 3.1 0.0 0.0
00:51 17.0 16.0 94 1020.4 3.1 N 3.1 0.0 0.0
00:52 17.0 16.0 94 1020.4 2.2 N 3.1 0.0 0.0
00:53 17.0 16.0 94 1020.5 2.2 N 3.1 0.0 0.0
00:54 17.0 16.0 94 1020.4 3.1 N 3.1 0.0 0.0
00:55 17.0 16.0 94 1020.4 2.2 N 3.1 0.0 0.0
00:56 17.0 16.0 94 1020.3 2.2 N 3.1 0.0 0.0
00:56 17.0 16.0 94 1020.3 2.2 N 3.1 0.0 0.0
00:58 17.0 16.0 94 1020.3 2.2 N 3.1 0.0 0.0
00:59 17.0 16.0 94 1020.4 3.1 N 3.1 0.0 0.0
01:00 17.0 16.0 94 1020.3 3.1 N 3.1 0.0 0.0
01:01 17.0 16.0 94 1020.3 3.1 N 3.1 0.0 0.0
01:02 17.0 16.0 94 1020.4 3.1 N 3.1 0.0 0.0
01:03 17.0 16.0 94 1020.4 3.1 N 3.1 0.0 0.0
01:04 17.0 16.0 94 1020.3 3.1 N 3.1 0.0 0.0
01:04 17.0 16.0 94 1020.3 3.1 N 3.1 0.0 0.0
01:05 17.0 16.0 94 1020.2 3.1 N 3.1 0.0 0.0
01:06 17.0 16.0 94 1020.2 3.1 N 3.1 0.0 0.0
01:08 17.0 16.0 94 1020.2 3.1 N 3.1 0.0 0.0
01:09 17.0 16.0 94 1020.2 3.1 N 3.1 0.0 0.0
01:10 16.9 16.1 95 1020.1 2.2 N 3.1 0.0 0.0
01:11 16.9 16.1 95 1020.3 2.2 N 3.1 0.0 0.0
01:12 16.9 16.1 95 1020.3 3.1 N 3.1 0.0 0.0
01:12 16.9 16.1 95 1020.3 3.1 N 3.1 0.0 0.0
01:13 16.9 16.1 95 1020.2 2.2 N 3.1 0.0 0.0
01:15 16.9 16.1 95 1020.3 2.2 N 3.1 0.0 0.0
01:16 16.9 16.1 95 1020.1 2.2 N 3.1 0.0 0.0
01:17 16.9 16.1 95 1020.2 1.6 N 3.1 0.0 0.0
01:18 16.9 16.1 95 1020.1 2.2 N 3.1 0.0 0.0
01:19 16.9 16.1 95 1020.2 2.2 N 3.1 0.0 0.0
01:20 16.9 16.1 95 1020.2 2.2 N 3.1 0.0 0.0
01:21 16.9 16.1 95 1020.2 2.2 N 3.1 0.0 0.0
01:22 16.9 16.1 95 1020.3 2.2 N 3.1 0.0 0.0
01:23 16.9 16.1 95 1020.2 1.6 N 2.2 0.0 0.0
01:24 16.9 16.1 95 1020.1 0.7 N 2.2 0.0 0.0
01:25 16.9 16.1 95 1020.1 1.6 N 2.2 0.0 0.0
01:26 16.9 16.1 95 1020.0 0.7 N 2.2 0.0 0.0
01:27 16.9 16.1 95 1020.2 1.6 N 2.2 0.0 0.0
01:28 16.9 16.1 95 1020.0 1.6 N 2.2 0.0 0.0
01:29 16.9 16.1 95 1020.2 1.6 N 2.2 0.0 0.0
01:30 16.9 16.1 95 1020.1 2.2 N 2.2 0.0 0.0
01:31 16.9 16.1 95 1020.1 2.2 N 2.2 0.0 0.0
01:32 16.9 16.1 95 1020.1 1.6 N 2.2 0.0 0.0
01:33 16.9 16.1 95 1020.1 1.6 N 2.2 0.0 0.0
01:34 16.9 16.1 95 1020.1 2.2 N 2.2 0.0 0.0
01:35 16.8 16.0 95 1020.0 2.2 N 2.2 0.0 0.0
01:36 16.8 16.0 95 1020.0 2.2 N 2.2 0.0 0.0
01:37 16.9 16.1 95 1020.1 2.2 N 2.2 0.0 0.0
01:38 16.8 16.0 95 1020.0 1.6 N 2.2 0.0 0.0
01:39 16.8 16.0 95 1019.9 1.6 N 2.2 0.0 0.0
01:40 16.8 16.0 95 1020.2 1.6 N 2.2 0.0 0.0
01:41 16.8 16.0 95 1020.2 1.6 N 2.2 0.0 0.0
01:42 16.8 16.0 95 1020.0 1.6 N 2.2 0.0 0.0
01:43 16.8 16.0 95 1019.9 2.2 N 2.2 0.0 0.0
01:43 16.8 16.0 95 1020.0 1.6 N 2.2 0.0 0.0
01:44 16.8 16.0 95 1020.0 1.6 N 2.2 0.0 0.0
01:45 16.8 16.0 95 1020.0 1.6 N 2.2 0.0 0.0
01:46 16.8 16.0 95 1020.1 2.2 N 2.2 0.0 0.0
01:47 16.8 16.0 95 1020.0 2.2 N 2.2 0.0 0.0
01:48 16.8 16.0 95 1020.0 2.2 N 2.2 0.0 0.0
01:49 16.8 16.0 95 1019.9 1.6 N 2.2 0.0 0.0
01:50 16.8 16.0 95 1020.0 3.1 N 3.1 0.0 0.0
01:51 16.8 16.0 95 1019.9 3.1 N 3.1 0.0 0.0
01:52 16.8 16.0 95 1020.0 2.2 N 3.1 0.0 0.0
01:53 16.8 16.2 96 1020.0 2.2 N 3.1 0.0 0.0
01:54 16.8 16.2 96 1020.0 1.6 N 3.1 0.0 0.0
01:55 16.8 16.2 96 1019.9 1.6 N 3.1 0.0 0.0
01:56 16.8 16.2 96 1020.0 1.6 N 3.1 0.0 0.0
01:57 16.8 16.2 96 1019.8 0.7 N 3.1 0.0 0.0
01:58 16.8 16.2 96 1019.9 1.6 N 3.1 0.0 0.0
01:59 16.8 16.2 96 1019.9 1.6 N 3.1 0.0 0.0
02:00 16.8 16.2 96 1020.0 1.6 N 3.1 0.0 0.0
02:01 16.8 16.2 96 1019.8 1.6 N 3.1 0.0 0.0
02:02 16.8 16.2 96 1019.8 1.6 N 2.2 0.0 0.0
02:03 16.8 16.2 96 1019.8 1.6 N 2.2 0.0 0.0
02:04 16.8 16.2 96 1020.0 1.6 N 1.6 0.0 0.0
02:05 16.8 16.2 96 1019.9 1.6 N 1.6 0.0 0.0
02:06 16.8 16.2 96 1019.9 1.6 N 1.6 0.0 0.0
02:07 16.8 16.2 96 1019.8 1.6 N 1.6 0.0 0.0
02:08 16.8 16.2 96 1019.9 1.6 N 1.6 0.0 0.0
02:09 16.8 16.2 96 1019.9 0.7 N 1.6 0.0 0.0
02:10 16.8 16.0 95 1019.8 0.0 N 1.6 0.0 0.0
02:11 16.8 16.2 96 1019.7 0.7 N 1.6 0.0 0.0
02:12 16.8 16.2 96 1019.7 0.7 N 1.6 0.0 0.0
02:13 16.8 16.0 95 1019.7 0.7 N 1.6 0.0 0.0
02:15 16.8 16.0 95 1019.7 0.7 N 1.6 0.0 0.0
02:16 16.8 16.0 95 1019.7 1.6 N 1.6 0.0 0.0
02:17 16.8 16.0 95 1019.6 4.5 NE 4.5 0.0 0.0
02:18 16.8 16.0 95 1019.7 3.1 NE 4.5 0.0 0.0
02:19 16.8 16.0 95 1019.7 3.1 NE 4.5 0.0 0.0
02:20 16.8 16.0 95 1019.7 2.2 NE 4.5 0.0 0.0
02:21 16.8 16.0 95 1019.8 3.1 NE 4.5 0.0 0.0
02:22 16.8 16.0 95 1019.7 3.1 NE 4.5 0.0 0.0
02:23 16.8 16.0 95 1019.6 3.8 NE 4.5 0.0 0.0
02:24 16.8 16.0 95 1019.7 3.1 NE 4.5 0.0 0.0
02:25 16.8 16.2 96 1019.7 4.5 NE 4.5 0.0 0.0
02:26 16.8 16.2 96 1019.6 3.8 NE 4.5 0.0 0.0
02:27 16.8 16.2 96 1019.6 3.8 NE 4.5 0.0 0.0
02:28 16.8 16.2 96 1019.7 3.1 NE 4.5 0.0 0.0
02:29 16.9 16.3 96 1019.7 3.1 NE 4.5 0.0 0.0
02:30 16.9 16.3 96 1019.7 3.8 NE 4.5 0.0 0.0
02:31 16.9 16.3 96 1019.6 3.8 NE 4.5 0.0 0.0
02:32 16.9 16.3 96 1019.7 3.1 NE 4.5 0.0 0.0
02:33 16.9 16.3 96 1019.7 3.1 NE 4.5 0.0 0.0
02:34 16.9 16.3 96 1019.6 2.2 NE 4.5 0.0 0.0
02:35 16.9 16.3 96 1019.6 2.2 NE 4.5 0.0 0.0
02:36 16.9 16.3 96 1019.6 1.6 NE 3.8 0.0 0.0
02:37 16.9 16.3 96 1019.7 0.0 NE 3.8 0.0 0.0
02:38 16.9 16.3 96 1019.6 0.7 NE 3.8 0.0 0.0
02:39 16.9 16.3 96 1019.6 0.7 NE 3.8 0.0 0.0
02:40 16.9 16.3 96 1019.7 2.2 NE 3.8 0.0 0.0
02:41 16.9 16.3 96 1019.7 3.1 NE 3.8 0.0 0.0
02:42 17.0 16.4 96 1019.6 0.7 NE 3.1 0.0 0.0
02:43 17.0 16.4 96 1019.5 1.6 NE 3.1 0.0 0.0
02:44 17.0 16.4 96 1019.6 0.7 NE 3.1 0.0 0.0
02:45 17.0 16.4 96 1019.7 0.0 NE 3.1 0.0 0.0
02:46 17.0 16.4 96 1019.7 0.7 NE 3.1 0.0 0.0
02:47 17.0 16.4 96 1019.7 0.7 NE 3.1 0.0 0.0
02:48 17.0 16.4 96 1019.6 1.6 NE 3.1 0.0 0.0
02:49 17.0 16.4 96 1019.6 0.7 NE 3.1 0.0 0.0
02:50 17.0 16.4 96 1019.7 1.6 NE 3.1 0.0 0.0
02:51 17.0 16.4 96 1019.7 3.1 NE 3.1 0.0 0.0
02:52 17.0 16.4 96 1019.7 3.1 NE 3.1 0.0 0.0
02:53 17.0 16.4 96 1019.8 3.8 NE 3.8 0.0 0.0
02:54 17.0 16.4 96 1019.6 3.8 N 3.8 0.0 0.0
02:55 17.0 16.4 96 1019.7 3.1 N 3.8 0.0 0.0
02:56 17.0 16.4 96 1019.6 2.2 N 3.8 0.0 0.0
02:57 17.0 16.4 96 1019.5 2.2 N 3.8 0.0 0.0
02:58 17.0 16.4 96 1019.5 2.2 N 3.8 0.0 0.0
02:59 17.0 16.4 96 1019.5 2.2 N 3.8 0.0 0.0
03:00 17.0 16.4 96 1019.5 3.1 N 3.8 0.0 0.0
03:01 17.0 16.4 96 1019.6 3.1 N 3.8 0.0 0.0
03:02 17.0 16.4 96 1019.6 3.1 N 3.8 0.0 0.0
03:03 17.0 16.4 96 1019.5 3.1 N 3.8 0.0 0.0
03:04 17.0 16.4 96 1019.5 3.1 N 3.8 0.0 0.0
03:05 17.0 16.4 96 1019.5 3.1 N 3.8 0.0 0.0
03:06 16.9 16.3 96 1019.5 3.1 N 3.1 0.0 0.0
03:07 16.9 16.3 96 1019.4 2.2 N 3.1 0.0 0.0
03:08 16.8 16.2 96 1019.5 3.1 N 3.1 0.0 0.0
03:09 16.8 16.2 96 1019.5 2.2 N 3.1 0.0 0.0
03:10 16.8 16.2 96 1019.5 3.1 N 3.1 0.0 0.0
03:11 16.8 16.2 96 1019.5 2.2 N 3.1 0.0 0.0
03:12 16.8 16.2 96 1019.5 2.2 N 3.1 0.0 0.0
03:13 16.8 16.2 96 1019.5 3.1 N 3.1 0.0 0.0
03:14 16.8 16.2 96 1019.5 3.1 N 3.1 0.0 0.0
03:15 16.7 16.1 96 1019.6 2.2 N 3.1 0.0 0.0
03:16 16.7 16.1 96 1019.4 2.2 N 3.1 0.0 0.0
03:17 16.7 16.1 96 1019.5 2.2 N 3.1 0.0 0.0
03:18 16.7 16.1 96 1019.5 2.2 N 3.1 0.0 0.0
03:19 16.7 16.1 96 1019.5 2.2 N 3.1 0.0 0.0
03:20 16.6 16.0 96 1019.4 2.2 N 3.1 0.0 0.0
03:21 16.6 16.0 96 1019.5 3.1 N 3.1 0.0 0.0
03:22 16.6 16.0 96 1019.5 2.2 N 3.1 0.0 0.0
03:23 16.6 16.0 96 1019.5 2.2 N 3.1 0.0 0.0
03:24 16.5 15.9 96 1019.3 2.2 N 3.1 0.0 0.0
03:25 16.5 15.9 96 1019.4 3.1 N 3.1 0.0 0.0
03:26 16.5 15.9 96 1019.5 2.2 N 3.1 0.0 0.0
03:27 16.5 15.9 96 1019.4 3.1 N 3.1 0.0 0.0
03:28 16.5 15.9 96 1019.3 3.8 N 3.8 0.0 0.0
03:29 16.4 15.8 96 1019.3 2.2 N 3.8 0.0 0.0
03:30 16.4 15.8 96 1019.4 3.1 N 3.8 0.0 0.0
03:31 16.4 15.8 96 1019.3 3.1 N 3.8 0.0 0.0
03:32 16.4 15.8 96 1019.4 3.1 N 3.8 0.0 0.0
03:33 16.4 15.8 96 1019.3 3.1 N 3.8 0.0 0.0
03:34 16.3 15.7 96 1019.4 3.1 N 3.8 0.0 0.0
03:35 16.3 15.7 96 1019.4 3.1 N 3.8 0.0 0.0
03:36 16.3 15.7 96 1019.3 3.1 N 3.8 0.0 0.0
03:37 16.3 15.7 96 1019.3 3.1 N 3.8 0.0 0.0
03:38 16.3 15.7 96 1019.2 2.2 N 3.8 0.0 0.0
03:39 16.3 15.7 96 1019.1 2.2 N 3.1 0.0 0.0
03:40 16.3 15.7 96 1019.2 2.2 N 3.1 0.0 0.0
03:41 16.3 15.7 96 1019.2 2.2 N 3.1 0.0 0.0
03:42 16.3 15.7 96 1019.3 1.6 N 3.1 0.0 0.0
03:43 16.2 15.6 96 1019.2 2.2 N 3.1 0.0 0.0
03:44 16.2 15.6 96 1019.3 2.2 N 3.1 0.0 0.0
03:45 16.2 15.6 96 1019.2 3.1 N 3.1 0.0 0.0
03:46 16.2 15.6 96 1019.1 3.1 N 3.1 0.0 0.0
03:47 16.2 15.7 97 1019.2 3.1 N 3.1 0.0 0.0
03:48 16.2 15.7 97 1019.2 2.2 N 3.1 0.0 0.0
03:49 16.2 15.7 97 1019.1 3.1 N 3.1 0.0 0.0
03:50 16.2 15.7 97 1019.2 2.2 N 3.1 0.0 0.0
03:51 16.2 15.7 97 1019.1 3.8 N 3.8 0.0 0.0
03:52 16.2 15.7 97 1019.2 2.2 N 3.8 0.0 0.0
03:53 16.2 15.7 97 1019.1 1.6 N 3.8 0.0 0.0
03:54 16.2 15.7 97 1019.0 1.6 N 3.8 0.0 0.0
03:55 16.2 15.7 97 1019.1 2.2 N 3.8 0.0 0.0
03:56 16.2 15.7 97 1019.2 2.2 N 3.8 0.0 0.0
03:57 16.1 15.6 97 1019.0 2.2 N 3.8 0.0 0.0
03:58 16.1 15.6 97 1019.1 3.8 N 3.8 0.0 0.0
03:59 16.1 15.6 97 1019.1 3.1 N 3.8 0.0 0.0
04:00 16.1 15.6 97 1019.1 3.1 N 3.8 0.0 0.0
04:01 16.1 15.6 97 1019.2 3.1 N 3.8 0.0 0.0
04:02 16.1 15.6 97 1018.9 3.1 N 3.8 0.0 0.0
04:03 16.1 15.6 97 1019.1 3.1 N 3.8 0.0 0.0
04:04 16.1 15.6 97 1019.1 3.1 N 3.8 0.0 0.0
04:05 16.1 15.6 97 1019.1 3.1 N 3.8 0.0 0.0
04:06 16.1 15.6 97 1018.9 3.1 N 3.8 0.0 0.0
04:07 16.1 15.6 97 1019.1 3.1 N 3.8 0.0 0.0
04:08 16.1 15.6 97 1019.0 3.1 N 3.1 0.0 0.0
04:09 16.1 15.6 97 1018.9 3.1 N 3.1 0.0 0.0
04:10 16.1 15.6 97 1019.0 2.2 N 3.1 0.0 0.0
04:11 16.1 15.6 97 1019.0 3.1 N 3.1 0.0 0.0
04:12 16.1 15.6 97 1018.9 3.1 N 3.1 0.0 0.0
04:13 16.1 15.6 97 1019.0 3.1 N 3.1 0.0 0.0
04:14 16.1 15.6 97 1018.8 3.1 N 3.1 0.0 0.0
04:15 16.1 15.6 97 1019.0 3.1 N 3.8 0.0 0.0
04:15 16.1 15.6 97 1019.0 3.1 N 3.8 0.0 0.0
04:16 16.1 15.6 97 1019.0 1.6 N 3.8 0.0 0.0
04:17 16.0 15.5 97 1018.9 2.2 NE 3.8 0.0 0.0
04:18 16.0 15.5 97 1019.0 2.2 NE 3.8 0.0 0.0
04:19 16.0 15.5 97 1018.8 2.2 NE 3.8 0.0 0.0
04:20 16.0 15.5 97 1019.0 3.1 NE 3.8 0.0 0.0
04:21 16.0 15.5 97 1018.8 2.2 NE 3.8 0.0 0.0
04:22 16.0 15.5 97 1018.8 2.2 NE 3.8 0.0 0.0
04:23 16.0 15.5 97 1019.0 2.2 NE 3.8 0.0 0.0
04:24 16.0 15.5 97 1018.8 2.2 NE 3.8 0.0 0.0
04:25 15.9 15.4 97 1018.8 2.2 NE 3.1 0.0 0.0
04:26 15.9 15.4 97 1018.8 2.2 NE 3.1 0.0 0.0
04:27 15.9 15.4 97 1018.7 3.1 NE 3.1 0.0 0.0
04:28 15.9 15.4 97 1018.8 3.1 NE 3.1 0.0 0.0
04:29 15.9 15.4 97 1018.8 3.1 NE 3.1 0.0 0.0
04:30 15.9 15.4 97 1018.7 2.2 NE 3.1 0.0 0.0
04:31 15.9 15.4 97 1018.8 2.2 NE 3.1 0.0 0.0
04:32 15.9 15.4 97 1018.6 1.6 NE 3.1 0.0 0.0
04:33 15.9 15.4 97 1018.7 2.2 NE 3.1 0.0 0.0
04:35 15.8 15.5 98 1018.8 2.2 NE 3.1 0.0 0.0
04:35 15.8 15.5 98 1018.8 2.2 NE 3.1 0.0 0.0
04:37 15.8 15.5 98 1018.7 3.1 NE 3.1 0.0 0.0
04:38 15.8 15.5 98 1018.8 3.1 NE 3.1 0.0 0.0
04:39 15.8 15.5 98 1018.7 3.8 NE 3.8 0.0 0.0
04:40 15.8 15.5 98 1018.7 3.1 NE 3.8 0.0 0.0
04:41 15.8 15.5 98 1018.7 2.2 N 3.8 0.0 0.0
04:42 15.8 15.5 98 1018.6 3.1 N 3.8 0.0 0.0
04:43 15.8 15.5 98 1018.6 2.2 N 3.8 0.0 0.0
04:44 15.8 15.5 98 1018.8 3.8 N 3.8 0.0 0.0
04:44 15.8 15.5 98 1018.8 3.8 N 3.8 0.0 0.0
04:45 15.8 15.5 98 1018.7 3.1 N 3.8 0.0 0.0
04:46 15.8 15.5 98 1018.7 3.1 N 3.8 0.0 0.0
04:47 15.8 15.5 98 1018.7 2.2 N 3.8 0.0 0.0
04:48 15.8 15.5 98 1018.8 3.1 N 3.8 0.0 0.0
04:49 15.8 15.5 98 1018.6 3.1 N 3.8 0.0 0.0
04:51 15.8 15.5 98 1018.6 2.2 N 3.8 0.0 0.0
04:52 15.8 15.5 98 1018.5 3.1 N 3.8 0.0 0.0
04:53 15.8 15.5 98 1018.6 3.1 N 3.8 0.0 0.0
04:54 15.8 15.5 98 1018.5 3.1 N 3.8 0.0 0.0
04:55 15.8 15.7 99 1018.7 2.2 N 3.1 0.0 0.0
04:56 15.8 15.7 99 1018.8 2.2 N 3.1 0.0 0.0
04:57 15.8 15.7 99 1018.8 2.2 N 3.1 0.0 0.0
04:58 15.8 15.7 99 1018.6 2.2 NE 3.1 0.0 0.0
04:59 15.8 15.7 99 1018.6 2.2 NE 3.1 0.0 0.0
05:00 15.8 15.7 99 1018.7 2.2 NE 3.1 0.0 0.0
05:01 15.8 15.7 99 1018.6 2.2 NE 3.1 0.0 0.0
05:02 15.8 15.7 99 1018.6 2.2 NE 3.1 0.0 0.0
05:03 15.8 15.7 99 1018.5 2.2 NE 3.1 0.0 0.0
05:04 15.8 15.7 99 1018.5 2.2 NE 3.1 0.0 0.0
05:05 15.8 15.7 99 1018.5 2.2 NE 2.2 0.0 0.0
05:06 15.9 15.8 99 1018.5 3.1 N 3.1 0.0 0.0
05:07 15.9 15.8 99 1018.6 2.2 N 3.1 0.0 0.0
05:08 15.9 15.8 99 1018.6 3.1 N 3.1 0.0 0.0
05:09 15.9 15.8 99 1018.5 3.1 N 3.1 0.0 0.0
05:10 15.9 15.8 99 1018.5 3.8 N 3.8 0.0 0.0
05:11 15.9 15.8 99 1018.5 3.1 N 3.8 0.0 0.0
05:12 16.0 15.9 99 1018.5 3.8 N 3.8 0.0 0.0
05:13 16.0 15.9 99 1018.5 3.8 N 3.8 0.0 0.0
05:14 16.0 15.9 99 1018.5 3.8 N 3.8 0.0 0.0
05:15 16.0 15.9 99 1018.5 3.1 NE 3.8 0.0 0.0
05:16 16.0 15.9 99 1018.5 3.8 NE 3.8 0.0 0.0
05:17 16.0 15.9 99 1018.6 2.2 NE 3.8 0.0 0.0
05:18 16.1 16.0 99 1018.5 3.1 NE 3.8 0.0 0.0
05:19 16.1 16.0 99 1018.7 2.2 NE 3.8 0.0 0.0
05:20 16.1 16.0 99 1018.5 3.1 NE 3.8 0.0 0.0
05:20 16.1 16.0 99 1018.5 3.1 NE 3.8 0.0 0.0
05:21 16.1 16.0 99 1018.6 3.1 NE 3.8 0.0 0.0
05:22 16.1 16.0 99 1018.4 3.1 NE 3.8 0.0 0.0
05:23 16.1 16.0 99 1018.5 4.5 NE 4.5 0.0 0.0
05:24 16.1 16.0 99 1018.3 2.2 N 4.5 0.0 0.0
05:25 16.2 16.1 99 1018.5 2.2 N 4.5 0.0 0.0
05:26 16.2 16.1 99 1018.5 1.6 N 4.5 0.0 0.0
05:27 16.2 16.1 99 1018.5 2.2 N 4.5 0.0 0.0
05:28 16.2 16.1 99 1018.5 3.8 N 4.5 0.0 0.0
05:29 16.2 16.1 99 1018.4 2.2 N 4.5 0.0 0.0
05:30 16.2 16.1 99 1018.3 2.2 N 4.5 0.0 0.0
05:31 16.2 16.1 99 1018.3 2.2 N 4.5 0.0 0.0
05:32 16.2 16.1 99 1018.4 1.6 N 4.5 0.0 0.0
05:33 16.2 16.1 99 1018.4 2.2 N 3.8 0.0 0.0
05:34 16.3 16.2 99 1018.5 3.1 N 3.8 0.0 0.0
05:35 16.3 16.2 99 1018.3 3.8 N 3.8 0.0 0.0
05:36 16.3 16.2 99 1018.4 3.1 N 3.8 0.0 0.0
05:37 16.3 16.2 99 1018.4 3.1 N 3.8 0.0 0.0
05:38 16.2 16.1 99 1018.4 3.1 N 3.8 0.0 0.0
05:39 16.3 16.2 99 1018.3 2.2 N 3.8 0.0 0.0
05:40 16.3 16.2 99 1018.5 3.1 N 3.8 0.0 0.0
05:41 16.3 16.2 99 1018.5 3.1 N 3.8 0.0 0.0
05:42 16.3 16.2 99 1018.5 3.8 N 3.8 0.0 0.0
05:43 16.3 16.2 99 1018.4 3.1 N 3.8 0.0 0.0
05:44 16.3 16.2 99 1018.4 5.4 NE 5.4 0.0 0.0
05:45 16.3 16.2 99 1018.4 3.1 N 5.4 0.0 0.0
05:46 16.3 16.2 99 1018.5 2.2 N 5.4 0.0 0.0
05:47 16.3 16.2 99 1018.5 6.0 N 6.0 0.0 0.0
05:49 16.3 16.2 99 1018.4 3.1 NE 6.0 0.0 0.0
05:49 16.3 16.2 99 1018.4 3.1 NE 6.0 0.0 0.0
05:51 16.3 16.2 99 1018.5 3.8 N 6.0 0.0 0.0
05:52 16.5 16.4 99 1018.4 3.8 NW 6.0 0.0 0.0
05:53 16.4 16.3 99 1018.5 3.8 NW 6.0 0.0 0.0
05:54 16.4 16.3 99 1018.4 3.8 NW 6.0 0.0 0.0
05:55 16.4 16.3 99 1018.5 2.2 NW 6.0 0.0 0.0
05:56 16.4 16.3 99 1018.5 1.6 NW 6.0 0.0 0.0
05:57 16.5 16.4 99 1018.6 1.6 NW 4.5 0.0 0.0
05:58 16.5 16.4 99 1018.5 3.8 NW 3.8 0.0 0.0
05:59 16.5 16.4 99 1018.4 2.2 NW 3.8 0.0 0.0
06:00 16.5 16.4 99 1018.4 2.2 NW 3.8 0.0 0.0
06:01 16.5 16.4 99 1018.4 2.2 NW 3.8 0.0 0.0
06:02 16.5 16.4 99 1018.4 2.2 NW 3.8 0.0 0.0
06:03 16.5 16.4 99 1018.4 2.2 NW 3.8 0.0 0.0
06:03 16.5 16.4 99 1018.4 2.2 NW 3.8 0.0 0.0
06:04 16.5 16.4 99 1018.5 2.2 NW 3.8 0.0 0.0
06:05 16.6 16.5 99 1018.5 0.7 NW 3.8 0.0 0.0
06:06 16.6 16.5 99 1018.4 4.5 N 4.5 0.0 0.0
06:07 16.6 16.5 99 1018.5 3.1 N 4.5 0.0 0.0
06:08 16.6 16.5 99 1018.4 3.1 N 4.5 0.0 0.0
06:09 16.7 16.6 99 1018.5 1.6 N 4.5 0.0 0.0
06:10 16.7 16.6 99 1018.4 3.1 N 4.5 0.0 0.0
06:11 16.7 16.6 99 1018.5 3.8 NE 4.5 0.0 0.0
06:12 16.7 16.6 99 1018.4 3.1 NE 4.5 0.0 0.0
06:13 16.7 16.6 99 1018.4 3.1 NE 4.5 0.0 0.0
06:14 16.8 16.7 99 1018.4 1.6 NE 4.5 0.0 0.0
06:15 16.8 16.7 99 1018.4 5.4 NE 5.4 0.0 0.0
06:16 16.8 16.7 99 1018.4 3.8 NE 5.4 0.0 0.0
06:17 16.9 16.8 99 1018.4 3.1 NE 5.4 0.0 0.0
06:18 16.9 16.8 99 1018.5 2.2 NE 5.4 0.0 0.0
06:19 16.9 16.8 99 1018.5 3.1 NE 5.4 0.0 0.0
06:20 17.0 16.9 99 1018.6 2.2 NE 5.4 0.0 0.0
06:21 17.0 16.9 99 1018.4 3.1 NE 5.4 0.0 0.0
06:22 17.0 16.9 99 1018.5 2.2 NE 5.4 0.0 0.0
06:23 17.1 17.0 99 1018.4 3.8 NE 5.4 0.0 0.0
06:24 17.1 17.0 99 1018.4 2.2 N 5.4 0.0 0.0
06:25 17.1 17.0 99 1018.3 3.8 N 5.4 0.0 0.0
06:26 17.1 17.0 99 1018.3 3.1 N 5.4 0.0 0.0
06:27 17.2 17.1 99 1018.5 6.9 NE 6.9 0.0 0.0
06:28 17.2 17.1 99 1018.4 3.1 NE 6.9 0.0 0.0
06:29 17.2 17.1 99 1018.5 1.6 NE 6.9 0.0 0.0
06:30 17.2 17.1 99 1018.5 3.1 NE 6.9 0.0 0.0
06:31 17.3 17.2 99 1018.3 3.1 NE 6.9 0.0 0.0
06:32 17.3 17.2 99 1018.3 3.1 N 6.9 0.0 0.0
06:33 17.3 17.2 99 1018.5 7.6 NE 7.6 0.0 0.0
06:34 17.3 17.2 99 1018.5 6.9 NE 7.6 0.0 0.0
06:35 17.3 17.2 99 1018.5 3.8 ENE 7.6 0.0 0.0
06:36 17.4 17.3 99 1018.4 3.1 NE 7.6 0.0 0.0
06:37 17.4 17.3 99 1018.4 3.1 NE 7.6 0.0 0.0
06:38 17.4 17.3 99 1018.5 4.5 NE 7.6 0.0 0.0
06:40 17.4 17.3 99 1018.4 5.4 NE 7.6 0.0 0.0
06:41 17.5 17.4 99 1018.5 6.9 NE 7.6 0.0 0.0
06:42 17.5 17.4 99 1018.5 4.5 NE 7.6 0.0 0.0
06:43 17.5 17.4 99 1018.5 3.8 N 7.6 0.0 0.0
06:44 17.5 17.4 99 1018.5 3.1 N 6.9 0.0 0.0
06:45 17.5 17.4 99 1018.4 6.9 NE 6.9 0.0 0.0
06:46 17.6 17.5 99 1018.5 6.0 NE 6.9 0.0 0.0
06:47 17.6 17.5 99 1018.5 6.0 NE 6.9 0.0 0.0
06:48 17.6 17.5 99 1018.5 4.5 NE 6.9 0.0 0.0
06:49 17.6 17.5 99 1018.5 4.5 NE 6.9 0.0 0.0
06:50 17.7 17.6 99 1018.5 7.6 NE 7.6 0.0 0.0
06:51 17.7 17.6 99 1018.7 3.8 NE 7.6 0.0 0.0
06:52 17.7 17.6 99 1018.7 5.4 NE 7.6 0.0 0.0
06:53 17.7 17.6 99 1018.5 6.9 NE 7.6 0.0 0.0
06:54 17.7 17.6 99 1018.6 8.3 NE 8.3 0.0 0.0
06:55 17.8 17.7 99 1018.5 3.8 N 8.3 0.0 0.0
06:56 17.8 17.7 99 1018.4 3.8 N 8.3 0.0 0.0
06:57 17.8 17.7 99 1018.5 5.4 NE 8.3 0.0 0.0
06:58 17.9 17.8 99 1018.4 6.9 NE 8.3 0.0 0.0
06:58 17.9 17.8 99 1018.4 6.9 NE 8.3 0.0 0.0
06:59 17.8 17.7 99 1018.5 6.0 NE 8.3 0.0 0.0
07:00 17.8 17.7 99 1018.6 6.0 NE 8.3 0.0 0.0
07:01 17.8 17.7 99 1018.5 6.0 NE 8.3 0.0 0.0
07:02 17.8 17.7 99 1018.5 6.0 NE 8.3 0.0 0.0
07:03 17.8 17.7 99 1018.5 6.0 NE 8.3 0.0 0.0
07:04 17.8 17.7 99 1018.4 6.0 NE 6.9 0.0 0.0
07:05 18.0 17.9 99 1018.5 4.5 NE 6.9 0.0 0.0
07:07 18.0 17.9 99 1018.4 5.4 NE 6.9 0.0 0.0
07:08 18.0 17.9 99 1018.4 5.4 NE 6.9 0.0 0.0
07:09 18.1 18.0 99 1018.5 7.6 NE 7.6 0.0 0.0
07:10 18.1 18.0 99 1018.4 6.9 NE 7.6 0.0 0.0
07:11 18.1 18.0 99 1018.4 6.0 N 7.6 0.0 0.0
07:12 18.1 18.0 99 1018.5 6.0 NE 7.6 0.0 0.0
07:13 18.1 18.0 99 1018.6 6.0 NE 7.6 0.0 0.0
07:14 18.1 18.0 99 1018.4 6.0 NE 7.6 0.0 0.0
07:15 18.2 18.1 99 1018.4 7.6 NE 7.6 0.0 0.0
07:16 18.2 18.1 99 1018.4 8.3 NE 8.3 0.0 0.0
07:17 18.2 18.1 99 1018.4 9.2 NE 9.2 0.0 0.0
07:18 18.2 18.1 99 1018.4 8.3 N 9.2 0.0 0.0
07:19 18.3 18.2 99 1018.5 7.6 NE 9.2 0.0 0.0
07:20 18.3 18.2 99 1018.5 4.5 NE 9.2 0.0 0.0
07:21 18.3 18.2 99 1018.3 6.9 NE 9.2 0.0 0.0
07:22 18.4 18.3 99 1018.5 8.3 N 9.2 0.0 0.0
07:23 18.4 18.3 99 1018.5 9.8 NE 9.8 0.0 0.0
07:24 18.4 18.3 99 1018.4 7.6 NE 9.8 0.0 0.0
07:25 18.5 18.4 99 1018.2 9.8 NE 9.8 0.0 0.0
07:26 18.5 18.4 99 1018.4 7.6 NE 9.8 0.0 0.0
07:26 18.5 18.4 99 1018.4 7.6 NE 9.8 0.0 0.0
07:27 18.5 18.4 99 1018.5 6.0 NE 9.8 0.0 0.0
07:28 18.5 18.4 99 1018.4 5.4 NE 9.8 0.0 0.0
07:29 18.6 18.3 98 1018.5 9.2 NNE 9.8 0.0 0.0
07:30 18.6 18.3 98 1018.5 6.0 NE 9.8 0.0 0.0
07:31 18.6 18.3 98 1018.5 6.9 NE 9.8 0.0 0.0
07:32 18.6 18.3 98 1018.5 5.4 N 9.8 0.0 0.0
07:33 18.7 18.4 98 1018.4 4.5 NE 9.8 0.0 0.0
07:34 18.7 18.4 98 1018.5 6.9 NE 9.8 0.0 0.0
07:35 18.7 18.4 98 1018.5 6.9 NE 9.8 0.0 0.0
07:36 18.7 18.4 98 1018.4 6.0 NE 9.2 0.0 0.0
07:37 18.8 18.5 98 1018.5 7.6 NE 9.2 0.0 0.0
07:38 18.8 18.5 98 1018.5 7.6 NE 9.2 0.0 0.0
07:39 18.8 18.5 98 1018.6 8.3 NE 9.2 0.0 0.0
07:40 18.9 18.6 98 1018.5 6.9 NE 8.3 0.0 0.0
07:42 18.9 18.6 98 1018.5 6.0 N 8.3 0.0 0.0
07:43 19.0 18.7 98 1018.5 9.2 NE 9.2 0.0 0.0
07:44 19.0 18.7 98 1018.5 6.9 NE 9.2 0.0 0.0
07:45 19.0 18.7 98 1018.6 4.5 NE 9.2 0.0 0.0
07:46 19.0 18.7 98 1018.5 8.3 NE 9.2 0.0 0.0
07:47 19.1 18.8 98 1018.4 7.6 NE 9.2 0.0 0.0
07:48 19.1 18.8 98 1018.5 8.3 NE 9.2 0.0 0.0
07:49 19.1 18.6 97 1018.6 6.0 NE 9.2 0.0 0.0
07:50 19.1 18.6 97 1018.5 7.6 N 9.2 0.0 0.0
07:51 19.2 18.7 97 1018.4 11.4 NE 11.4 0.0 0.0
07:52 19.2 18.7 97 1018.5 5.4 NE 11.4 0.0 0.0
07:53 19.2 18.7 97 1018.5 5.4 NE 11.4 0.0 0.0
07:54 19.2 18.7 97 1018.5 7.6 NE 11.4 0.0 0.0
07:55 19.3 18.8 97 1018.4 8.3 NE 11.4 0.0 0.0
07:56 19.3 18.8 97 1018.4 9.8 NE 11.4 0.0 0.0
07:57 19.3 18.8 97 1018.5 11.4 NE 11.4 0.0 0.0
07:58 19.4 18.9 97 1018.5 11.4 N 11.4 0.0 0.0
07:59 19.4 18.9 97 1018.5 7.6 NE 11.4 0.0 0.0
08:00 19.4 18.9 97 1018.4 7.6 NE 11.4 0.0 0.0
08:01 19.4 18.9 97 1018.5 7.6 NE 11.4 0.0 0.0
08:02 19.4 18.9 97 1018.5 7.6 NE 11.4 0.0 0.0
08:03 19.4 18.9 97 1018.6 7.6 NE 11.4 0.0 0.0
08:04 19.4 18.9 97 1018.5 7.6 NE 11.4 0.0 0.0
08:05 19.5 18.9 96 1018.7 6.9 NE 11.4 0.0 0.0
08:07 19.6 19.0 96 1018.6 8.3 E 11.4 0.0 0.0
08:08 19.6 19.0 96 1018.5 9.2 NE 11.4 0.0 0.0
08:09 19.7 19.1 96 1018.5 6.9 NE 9.2 0.0 0.0
08:10 19.7 19.1 96 1018.4 8.3 N 9.2 0.0 0.0
08:11 19.7 19.1 96 1018.5 6.0 N 9.2 0.0 0.0
08:12 19.8 19.2 96 1018.5 6.0 NE 9.2 0.0 0.0
08:13 19.8 19.2 96 1018.4 9.8 SW 9.8 0.0 0.0
08:14 19.8 19.2 96 1018.6 5.4 NE 9.8 0.0 0.0
08:15 19.9 19.3 96 1018.5 7.6 N 9.8 0.0 0.0
08:16 19.9 19.3 96 1018.5 4.5 NE 9.8 0.0 0.0
08:17 19.9 19.3 96 1018.3 8.3 NE 9.8 0.0 0.0
08:18 19.9 19.3 96 1018.3 5.4 NW 9.8 0.0 0.0
08:19 20.0 19.2 95 1018.3 6.0 NE 9.8 0.0 0.0
08:20 20.0 19.2 95 1018.4 3.8 NE 9.8 0.0 0.0
08:21 20.0 19.2 95 1018.3 6.9 NE 9.8 0.0 0.0
08:22 20.0 19.2 95 1018.3 9.8 NE 9.8 0.0 0.0
08:24 20.1 19.3 95 1018.3 7.6 NE 9.8 0.0 0.0
08:25 20.1 19.3 95 1018.4 6.0 N 9.8 0.0 0.0
08:25 20.1 19.3 95 1018.4 6.0 N 9.8 0.0 0.0
08:26 20.1 19.3 95 1018.3 6.9 NW 9.8 0.0 0.0
08:27 20.1 19.3 95 1018.6 4.5 NE 9.8 0.0 0.0
08:28 20.1 19.3 95 1018.4 6.0 NE 9.8 0.0 0.0
08:29 20.2 19.4 95 1018.4 7.6 N 9.8 0.0 0.0
08:30 20.2 19.2 94 1018.4 9.2 N 9.8 0.0 0.0
08:31 20.2 19.2 94 1018.3 9.8 NE 9.8 0.0 0.0
08:32 20.2 19.2 94 1018.5 12.1 NE 12.1 0.0 0.0
08:33 20.2 19.2 94 1018.4 8.3 NE 12.1 0.0 0.0
08:34 20.3 19.3 94 1018.4 11.4 NE 12.1 0.0 0.0
08:35 20.3 19.3 94 1018.3 9.8 NE 12.1 0.0 0.0
08:36 20.3 19.3 94 1018.2 10.7 NE 12.1 0.0 0.0
08:37 20.3 19.3 94 1018.4 9.8 NE 12.1 0.0 0.0
08:38 20.4 19.4 94 1018.3 9.2 NE 12.1 0.0 0.0
08:39 20.4 19.4 94 1018.3 7.6 NE 12.1 0.0 0.0
08:40 20.4 19.4 94 1018.5 8.3 NE 12.1 0.0 0.0
08:41 20.4 19.4 94 1018.5 9.8 N 12.1 0.0 0.0
08:42 20.5 19.5 94 1018.4 10.7 NE 11.4 0.0 0.0
08:43 20.5 19.3 93 1018.5 6.9 N 11.4 0.0 0.0
08:44 20.5 19.3 93 1018.4 9.2 NE 10.7 0.0 0.0
08:45 20.5 19.3 93 1018.4 6.9 N 10.7 0.0 0.0
08:46 20.5 19.3 93 1018.5 4.5 N 10.7 0.0 0.0
08:47 20.6 19.4 93 1018.5 4.5 N 10.7 0.0 0.0
08:48 20.6 19.4 93 1018.4 7.6 NE 10.7 0.0 0.0
08:49 20.6 19.4 93 1018.3 9.8 NE 10.7 0.0 0.0
08:50 20.6 19.4 93 1018.3 12.1 NE 12.1 0.0 0.0
08:51 20.7 19.5 93 1018.4 6.9 NE 12.1 0.0 0.0
08:51 20.7 19.5 93 1018.4 6.9 NE 12.1 0.0 0.0
08:53 20.7 19.5 93 1018.4 9.2 NE 12.1 0.0 0.0
08:54 20.7 19.5 93 1018.3 9.8 NE 12.1 0.0 0.0
08:55 20.8 19.6 93 1018.5 9.8 N 12.1 0.0 0.0
08:56 20.8 19.5 92 1018.4 7.6 NE 12.1 0.0 0.0
08:57 20.8 19.5 92 1018.3 5.4 N 12.1 0.0 0.0
08:58 20.8 19.5 92 1018.3 9.8 E 12.1 0.0 0.0
08:59 20.9 19.6 92 1018.3 7.6 N 12.1 0.0 0.0
09:00 20.9 19.6 92 1018.4 7.6 N 11.4 0.0 0.0
09:02 20.9 19.6 92 1018.4 7.6 NE 11.4 0.0 0.0
09:03 20.9 19.6 92 1018.5 6.9 N 11.4 0.0 0.0
09:04 21.0 19.7 92 1018.5 5.4 N 11.4 0.0 0.0
09:05 21.0 19.7 92 1018.5 7.6 NE 11.4 0.0 0.0
09:05 21.0 19.7 92 1018.5 7.6 NE 11.4 0.0 0.0
09:06 21.0 19.7 92 1018.4 3.8 NE 9.8 0.0 0.0
09:07 21.1 19.8 92 1018.5 4.5 NE 9.8 0.0 0.0
09:08 21.1 19.8 92 1018.5 6.9 N 9.8 0.0 0.0
09:09 21.1 19.6 91 1018.4 9.2 E 10.7 0.0 0.0
09:10 21.2 19.7 91 1018.5 8.3 NE 10.7 0.0 0.0
09:11 21.2 19.7 91 1018.4 8.3 NE 12.1 0.0 0.0
09:12 21.3 19.8 91 1018.5 8.3 NE 12.1 0.0 0.0
09:13 21.3 19.8 91 1018.4 9.2 NE 12.1 0.0 0.0
09:15 21.3 19.8 91 1018.4 6.9 NE 12.1 0.0 0.0
09:16 21.4 19.9 91 1018.5 8.3 NE 12.1 0.0 0.0
09:16 21.4 19.9 91 1018.5 8.3 NE 12.1 0.0 0.0
09:17 21.4 19.7 90 1018.4 9.8 NNE 12.1 0.0 0.0
09:18 21.4 19.7 90 1018.5 4.5 N 12.1 0.0 0.0
09:19 21.5 19.8 90 1018.4 5.4 NW 12.1 0.0 0.0
09:20 21.5 19.8 90 1018.3 10.7 NE 12.1 0.0 0.0
09:21 21.6 19.9 90 1018.5 6.9 NW 10.7 0.0 0.0
09:22 21.6 19.9 90 1018.5 6.9 NE 10.7 0.0 0.0
09:23 21.7 20.0 90 1018.4 8.3 NE 10.7 0.0 0.0
09:24 21.7 20.0 90 1018.5 6.0 NE 10.7 0.0 0.0
09:25 21.8 20.1 90 1018.3 6.9 SE 10.7 0.0 0.0
09:26 21.8 19.9 89 1018.5 5.4 NE 10.7 0.0 0.0
09:27 21.8 19.9 89 1018.3 6.0 NE 10.7 0.0 0.0
09:28 21.9 20.0 89 1018.3 8.3 N 10.7 0.0 0.0
09:29 21.9 20.0 89 1018.3 8.3 N 11.4 0.0 0.0
09:30 21.9 19.8 88 1018.4 6.9 N 11.4 0.0 0.0
09:31 22.0 19.9 88 1018.4 6.9 NE 11.4 0.0 0.0
09:32 22.0 19.9 88 1018.4 6.0 NE 11.4 0.0 0.0
09:33 22.0 19.9 88 1018.4 9.2 N 11.4 0.0 0.0
09:34 22.1 20.0 88 1018.4 10.7 NW 11.4 0.0 0.0
09:35 22.2 20.1 88 1018.4 7.6 NE 11.4 0.0 0.0
09:36 22.2 20.1 88 1018.5 9.2 NW 11.4 0.0 0.0
09:37 22.2 20.0 87 1018.3 7.6 NE 11.4 0.0 0.0
09:38 22.2 20.1 88 1018.5 4.5 N 11.4 0.0 0.0
09:39 22.3 20.1 87 1018.5 9.2 W 10.7 0.0 0.0
09:40 22.3 20.1 87 1018.4 5.4 N 10.7 0.0 0.0
09:41 22.3 20.1 87 1018.5 6.9 SE 10.7 0.0 0.0
09:42 22.3 20.1 87 1018.3 9.2 NW 10.7 0.0 0.0
09:44 22.4 20.2 87 1018.4 6.0 N 10.7 0.0 0.0
09:45 22.5 20.2 87 1018.4 7.6 NNW 9.2 0.0 0.0
09:45 22.5 20.2 87 1018.4 7.6 NNW 9.2 0.0 0.0
09:46 22.5 20.2 87 1018.4 8.3 N 9.2 0.0 0.0
09:47 22.5 20.2 87 1018.3 6.0 N 9.2 0.0 0.0
09:48 22.6 20.2 86 1018.4 7.6 N 9.2 0.0 0.0
09:49 22.6 20.2 86 1018.4 6.0 NE 9.2 0.0 0.0
09:50 22.7 20.3 86 1018.4 8.3 NE 9.2 0.0 0.0
09:51 22.7 20.3 86 1018.2 6.0 NE 9.2 0.0 0.0
09:52 22.7 20.3 86 1018.2 3.1 NE 9.2 0.0 0.0
09:53 22.8 20.4 86 1018.3 5.4 NNE 9.2 0.0 0.0
09:54 22.8 20.4 86 1018.3 5.4 SW 9.2 0.0 0.0
09:55 22.9 20.3 85 1018.2 4.5 N 8.3 0.0 0.0
09:56 22.9 20.3 85 1018.4 5.4 NE 8.3 0.0 0.0
09:57 23.0 20.4 85 1018.3 7.6 NE 8.3 0.0 0.0
09:58 23.0 20.2 84 1018.4 8.3 N 8.3 0.0 0.0
09:59 23.0 20.2 84 1018.3 5.4 NE 8.3 0.0 0.0
10:00 23.0 20.2 84 1018.1 5.4 NE 8.3 0.0 0.0
10:01 23.0 20.2 84 1018.1 5.4 NE 8.3 0.0 0.0
10:02 23.0 20.2 84 1018.2 5.4 NE 8.3 0.0 0.0
10:03 23.0 20.2 84 1018.2 5.4 NE 8.3 0.0 0.0
10:04 23.0 20.2 84 1018.2 5.4 NE 8.3 0.0 0.0
10:05 23.0 20.2 84 1018.2 5.4 NE 8.3 0.0 0.0
10:06 23.3 20.5 84 1018.2 6.9 NE 8.3 0.0 0.0
10:07 23.3 20.5 84 1018.1 6.0 NE 8.3 0.0 0.0
10:08 23.4 20.4 83 1018.2 9.8 NE 9.8 0.0 0.0
10:09 23.4 20.4 83 1018.3 3.8 N 9.8 0.0 0.0
10:10 23.4 20.4 83 1018.4 6.0 E 9.8 0.0 0.0
10:11 23.5 20.5 83 1018.3 6.0 NNE 9.8 0.0 0.0
10:12 23.5 20.5 83 1018.2 11.4 N 11.4 0.0 0.0
10:13 23.5 20.3 82 1018.2 10.7 NE 11.4 0.0 0.0
10:15 23.5 20.3 82 1018.3 7.6 NE 11.4 0.0 0.0
10:15 23.5 20.3 82 1018.3 7.6 NE 11.4 0.0 0.0
10:16 23.6 20.4 82 1018.3 11.4 NE 11.4 0.0 0.0
10:17 23.6 20.4 82 1018.2 6.9 N 11.4 0.0 0.0
10:18 23.6 20.4 82 1018.3 8.3 NE 11.4 0.0 0.0
10:19 23.6 20.4 82 1018.2 13.0 NE 13.0 0.0 0.0
10:20 23.6 20.4 82 1018.3 8.3 NE 13.0 0.0 0.0
10:21 23.6 20.4 82 1018.3 11.4 NE 13.0 0.0 0.0
10:22 23.6 20.4 82 1018.3 7.6 N 13.0 0.0 0.0
10:24 23.6 20.2 81 1018.3 9.2 NE 13.0 0.0 0.0
10:24 23.6 20.2 81 1018.3 9.2 NE 13.0 0.0 0.0
10:25 23.6 20.2 81 1018.2 9.8 N 13.0 0.0 0.0
10:26 23.6 20.2 81 1018.1 4.5 N 13.0 0.0 0.0
10:27 23.6 20.4 82 1018.2 7.6 N 13.0 0.0 0.0
10:28 23.6 20.4 82 1018.2 12.1 NE 13.0 0.0 0.0
10:29 23.6 20.2 81 1018.1 9.8 N 13.0 0.0 0.0
10:30 23.6 20.2 81 1018.1 10.7 N 12.1 0.0 0.0
10:31 23.6 20.2 81 1018.1 9.2 N 12.1 0.0 0.0
10:32 23.6 20.4 82 1018.2 12.1 NE 12.1 0.0 0.0
10:33 23.6 20.2 81 1018.2 9.2 N 12.1 0.0 0.0
10:34 23.6 20.2 81 1018.0 8.3 NE 12.1 0.0 0.0
10:35 23.6 20.4 82 1018.1 8.3 NE 12.1 0.0 0.0
10:36 23.6 20.4 82 1018.2 6.0 NE 12.1 0.0 0.0
10:37 23.6 20.2 81 1018.2 5.4 NE 12.1 0.0 0.0
10:38 23.7 20.3 81 1018.2 6.0 NE 12.1 0.0 0.0
10:39 23.7 20.5 82 1018.3 9.8 NE 12.1 0.0 0.0
10:40 23.7 20.5 82 1018.3 9.2 N 12.1 0.0 0.0
10:41 23.7 20.5 82 1018.2 5.4 N 12.1 0.0 0.0
10:42 23.8 20.8 83 1018.3 7.6 N 9.8 0.0 0.0
10:43 23.9 20.5 81 1018.2 8.3 NE 9.8 0.0 0.0
10:44 23.9 20.5 81 1018.1 10.7 NE 10.7 0.0 0.0
10:46 24.0 20.6 81 1018.2 6.9 N 10.7 0.0 0.0
10:46 24.0 20.6 81 1018.2 6.9 N 10.7 0.0 0.0
10:47 24.1 20.7 81 1018.2 7.6 NE 10.7 0.0 0.0
10:48 24.1 20.9 82 1018.2 8.3 NE 10.7 0.0 0.0
10:49 24.2 20.8 81 1018.0 8.3 N 10.7 0.0 0.0
10:50 24.2 20.8 81 1018.1 8.3 N 10.7 0.0 0.0
10:51 24.2 20.8 81 1018.2 6.0 N 10.7 0.0 0.0
10:52 24.3 20.7 80 1018.1 6.9 N 10.7 0.0 0.0
10:53 24.3 20.7 80 1018.2 6.0 N 10.7 0.0 0.0
10:54 24.2 20.6 80 1018.0 8.3 E 10.7 0.0 0.0
10:55 24.2 20.6 80 1018.1 6.0 NE 8.3 0.0 0.0
10:56 24.2 20.6 80 1018.1 5.4 N 8.3 0.0 0.0
10:57 24.3 20.9 81 1018.2 6.0 E 9.2 0.0 0.0
10:58 24.4 20.7 80 1018.2 5.4 N 9.2 0.0 0.0
10:59 24.4 20.5 79 1018.2 8.3 SW 9.2 0.0 0.0
11:00 24.4 20.5 79 1018.1 8.3 SW 9.2 0.0 0.0
11:01 24.4 20.5 79 1018.2 8.3 SW 9.2 0.0 0.0
11:02 24.4 20.5 79 1018.2 9.2 NE 9.2 0.0 0.0
11:03 24.4 20.5 79 1018.2 9.8 N 9.8 0.0 0.0
11:04 24.5 20.6 79 1018.2 5.4 N 9.8 0.0 0.0
11:05 24.5 20.4 78 1018.2 6.0 N 9.8 0.0 0.0
11:06 24.4 20.3 78 1018.4 5.4 E 9.8 0.0 0.0
11:07 24.4 20.3 78 1018.3 9.2 NW 9.8 0.0 0.0
11:08 24.5 20.4 78 1018.3 6.0 NE 9.8 0.0 0.0
11:09 24.5 20.4 78 1018.3 8.3 NE 9.8 0.0 0.0
11:10 24.5 20.6 79 1018.3 10.7 N 10.7 0.0 0.0
11:11 24.5 20.2 77 1018.4 5.4 N 10.7 0.0 0.0
11:13 24.5 20.2 77 1018.4 5.4 N 10.7 0.0 0.0
11:13 24.5 20.2 77 1018.4 5.4 N 10.7 0.0 0.0
11:14 24.5 20.2 77 1018.4 11.4 NE 11.4 0.0 0.0
11:15 24.5 20.2 77 1018.3 8.3 N 11.4 0.0 0.0
11:16 24.4 20.3 78 1018.4 3.8 NE 11.4 0.0 0.0
11:17 24.5 20.4 78 1018.3 3.8 SE 11.4 0.0 0.0
11:18 24.5 20.4 78 1018.4 6.0 N 11.4 0.0 0.0
11:19 24.5 20.4 78 1018.4 6.0 N 11.4 0.0 0.0
11:20 24.6 20.5 78 1018.3 6.0 N 11.4 0.0 0.0
11:21 24.6 20.7 79 1018.4 6.0 N 11.4 0.0 0.0
11:22 24.7 20.4 77 1018.2 4.5 N 11.4 0.0 0.0
11:23 24.7 20.4 77 1018.3 4.5 N 11.4 0.0 0.0
11:24 24.7 20.6 78 1018.4 8.3 NE 11.4 0.0 0.0
11:25 24.7 20.6 78 1018.3 6.9 N 8.3 0.0 0.0
11:26 24.7 20.4 77 1018.3 4.5 N 9.2 0.0 0.0
11:27 24.7 20.4 77 1018.4 6.9 NW 9.2 0.0 0.0
11:28 24.8 20.7 78 1018.3 6.0 NE 9.2 0.0 0.0
11:29 24.8 20.5 77 1018.4 7.6 NE 9.2 0.0 0.0
11:30 24.9 20.6 77 1018.4 9.8 N 9.8 0.0 0.0
11:31 24.9 20.4 76 1018.5 8.3 N 9.8 0.0 0.0
11:32 24.9 20.4 76 1018.5 11.4 NW 11.4 0.0 0.0
11:33 24.8 20.3 76 1018.6 6.0 NE 11.4 0.0 0.0
11:34 24.8 20.3 76 1018.5 9.2 NE 11.4 0.0 0.0
11:35 24.8 20.3 76 1018.5 4.5 N 11.4 0.0 0.0
11:36 24.8 20.5 77 1018.5 6.0 N 11.4 0.0 0.0
11:37 24.8 20.3 76 1018.5 6.0 NE 11.4 0.0 0.0
11:37 24.8 20.3 76 1018.5 6.0 NE 11.4 0.0 0.0
11:39 24.8 20.5 77 1018.5 8.3 N 11.4 0.0 0.0
11:40 24.8 20.5 77 1018.5 6.0 NE 11.4 0.0 0.0
11:41 24.9 20.6 77 1018.5 6.0 N 11.4 0.0 0.0
11:42 24.9 20.4 76 1018.5 6.9 NE 11.4 0.0 0.0
11:43 24.9 20.4 76 1018.5 8.3 WSW 9.2 0.0 0.0
11:44 24.9 20.2 75 1018.5 9.8 NW 9.8 0.0 0.0
11:45 24.9 20.4 76 1018.5 6.9 N 9.8 0.0 0.0
11:46 24.8 20.3 76 1018.4 6.0 N 9.8 0.0 0.0
11:47 24.9 20.4 76 1018.4 3.8 N 9.8 0.0 0.0
11:48 24.8 20.3 76 1018.5 3.8 NE 9.8 0.0 0.0
11:49 24.9 20.4 76 1018.3 6.9 N 9.8 0.0 0.0
11:50 24.9 20.6 77 1018.5 6.9 N 9.8 0.0 0.0
11:51 24.9 20.6 77 1018.5 6.9 N 9.8 0.0 0.0
11:52 25.0 20.5 76 1018.5 6.0 E 9.8 0.0 0.0
11:53 25.0 20.5 76 1018.4 5.4 N 9.8 0.0 0.0
11:54 25.0 20.5 76 1018.5 4.5 N 6.9 0.0 0.0
11:55 25.0 20.5 76 1018.4 6.9 S 6.9 0.0 0.0
11:56 25.0 20.5 76 1018.4 6.9 N 6.9 0.0 0.0
11:57 25.1 20.6 76 1018.3 6.0 ENE 6.9 0.0 0.0
11:58 25.1 20.6 76 1018.5 4.5 NW 6.9 0.0 0.0
11:59 25.1 20.4 75 1018.6 6.0 N 6.9 0.0 0.0
12:00 25.1 20.4 75 1018.6 6.0 N 6.9 0.0 0.0
12:01 25.1 20.4 75 1018.5 6.0 N 6.9 0.0 0.0
12:01 25.1 20.4 75 1018.5 6.0 N 6.9 0.0 0.0
12:03 25.2 20.9 77 1018.5 5.4 N 6.9 0.0 0.0
12:04 25.2 20.7 76 1018.5 4.5 N 6.9 0.0 0.0
12:05 25.3 20.8 76 1018.5 3.8 E 6.9 0.0 0.0
12:06 25.4 21.1 77 1018.5 5.4 NE 6.9 0.0 0.0
12:07 25.4 20.9 76 1018.5 8.3 W 8.3 0.0 0.0
12:08 25.5 21.0 76 1018.5 4.5 NE 8.3 0.0 0.0
12:09 25.5 21.0 76 1018.4 7.6 N 8.3 0.0 0.0
12:10 25.6 20.9 75 1018.5 4.5 N 8.3 0.0 0.0
12:11 25.6 21.1 76 1018.4 6.0 NE 8.3 0.0 0.0
12:12 25.6 21.3 77 1018.5 6.0 N 8.3 0.0 0.0
12:13 25.7 21.2 76 1018.4 6.9 NE 8.3 0.0 0.0
12:14 25.7 21.0 75 1018.3 5.4 N 8.3 0.0 0.0
12:15 25.7 21.0 75 1018.4 6.9 N 8.3 0.0 0.0
12:16 25.8 20.8 74 1018.5 6.9 NE 8.3 0.0 0.0
12:17 25.8 20.8 74 1018.5 8.3 NE 8.3 0.0 0.0
12:18 25.8 21.1 75 1018.4 4.5 N 8.3 0.0 0.0
12:19 25.8 21.1 75 1018.5 3.8 S 8.3 0.0 0.0
12:20 25.9 21.2 75 1018.5 6.9 N 8.3 0.0 0.0
12:21 25.9 20.9 74 1018.5 3.8 N 8.3 0.0 0.0
12:22 25.9 20.9 74 1018.4 4.5 N 8.3 0.0 0.0
12:23 25.9 21.2 75 1018.5 7.6 NE 9.2 0.0 0.0
12:24 25.9 20.9 74 1018.4 7.6 N 9.2 0.0 0.0
12:25 25.9 20.9 74 1018.3 6.9 N 9.2 0.0 0.0
12:26 25.8 21.1 75 1018.1 3.1 N 9.2 0.0 0.0
12:27 25.9 21.2 75 1018.2 6.9 NE 9.2 0.0 0.0
12:28 25.9 21.4 76 1018.3 5.4 NE 9.2 0.0 0.0
12:29 26.0 21.5 76 1018.2 5.4 N 9.2 0.0 0.0
12:30 26.1 21.3 75 1018.1 5.4 N 9.2 0.0 0.0
12:30 26.1 21.3 75 1018.1 5.4 N 9.2 0.0 0.0
12:32 26.1 21.3 75 1018.2 6.0 N 9.2 0.0 0.0
12:33 26.2 21.4 75 1018.3 6.0 N 9.2 0.0 0.0
12:34 26.2 21.4 75 1018.3 6.0 NE 7.6 0.0 0.0
12:35 26.2 21.4 75 1018.3 3.8 NW 6.9 0.0 0.0
12:36 26.3 21.3 74 1018.2 3.8 N 6.9 0.0 0.0
12:37 26.3 21.3 74 1018.1 7.6 NE 7.6 0.0 0.0
12:38 26.3 21.3 74 1018.3 6.9 N 7.6 0.0 0.0
12:39 26.3 21.3 74 1018.1 5.4 N 7.6 0.0 0.0
12:40 26.3 21.3 74 1018.2 3.8 N 7.6 0.0 0.0
12:41 26.2 21.2 74 1018.2 5.4 N 7.6 0.0 0.0
12:42 26.2 21.2 74 1018.2 3.8 NW 7.6 0.0 0.0
12:43 26.2 21.2 74 1018.2 4.5 N 7.6 0.0 0.0
12:44 26.2 21.2 74 1018.2 4.5 N 7.6 0.0 0.0
12:45 26.2 21.2 74 1018.2 4.5 N 7.6 0.0 0.0
12:45 26.2 21.2 74 1018.2 4.5 N 7.6 0.0 0.0
12:47 26.2 21.2 74 1018.0 6.9 S 6.9 0.0 0.0
12:47 26.2 21.2 74 1018.0 6.9 S 6.9 0.0 0.0
12:49 26.2 21.4 75 1018.2 7.6 N 7.6 0.0 0.0
12:49 26.2 21.4 75 1018.2 7.6 N 7.6 0.0 0.0
12:51 26.2 21.4 75 1018.2 7.6 N 7.6 0.0 0.0
12:51 26.2 21.4 75 1018.2 7.6 N 7.6 0.0 0.0
12:53 26.2 21.4 75 1018.2 7.6 N 7.6 0.0 0.0
12:53 26.2 21.4 75 1018.2 7.6 N 7.6 0.0 0.0
12:55 26.4 21.6 75 1018.3 6.0 NW 7.6 0.0 0.0
12:55 26.4 21.6 75 1018.3 6.0 NW 7.6 0.0 0.0
12:57 26.5 21.3 73 1018.2 4.5 N 7.6 0.0 0.0
12:58 26.5 21.5 74 1018.3 5.4 N 8.3 0.0 0.0
12:58 26.5 21.5 74 1018.3 5.4 N 8.3 0.0 0.0
13:00 26.5 21.5 74 1018.3 5.4 N 8.3 0.0 0.0
13:00 26.5 21.5 74 1018.3 5.4 N 8.3 0.0 0.0
13:02 26.5 21.5 74 1018.3 5.4 N 8.3 0.0 0.0
13:02 26.5 21.5 74 1018.3 5.4 N 8.3 0.0 0.0
13:04 26.5 21.5 74 1018.1 5.4 N 8.3 0.0 0.0
13:04 26.5 21.5 74 1018.1 5.4 N 8.3 0.0 0.0
13:06 26.5 21.5 74 1018.2 5.4 N 8.3 0.0 0.0
13:06 26.5 21.5 74 1018.2 5.4 N 8.3 0.0 0.0
13:08 26.5 21.5 74 1018.2 5.4 N 8.3 0.0 0.0
13:08 26.5 21.5 74 1018.2 5.4 N 8.3 0.0 0.0
13:10 26.5 21.5 74 1018.3 5.4 N 8.3 0.0 0.0
13:10 26.5 21.5 74 1018.3 5.4 N 8.3 0.0 0.0
13:12 26.5 21.5 74 1018.0 5.4 N 8.3 0.0 0.0
13:12 26.5 21.5 74 1018.0 5.4 N 8.3 0.0 0.0
13:14 26.7 21.7 74 1018.0 9.8 N 9.8 0.0 0.0
13:14 26.7 21.7 74 1018.0 9.8 N 9.8 0.0 0.0
13:16 26.7 21.7 74 1018.2 9.8 N 9.8 0.0 0.0
13:16 26.7 21.7 74 1018.2 9.8 N 9.8 0.0 0.0
13:18 26.8 21.6 73 1018.0 6.9 NW 9.8 0.0 0.0
13:18 26.8 21.6 73 1018.0 6.9 NW 9.8 0.0 0.0
13:20 26.8 21.6 73 1018.0 6.9 NW 9.8 0.0 0.0
13:20 26.8 21.6 73 1018.0 6.9 NW 9.8 0.0 0.0
13:22 26.9 21.7 73 1018.2 6.9 N 9.8 0.0 0.0
13:22 26.9 21.7 73 1018.2 6.9 N 9.8 0.0 0.0
13:24 26.9 21.7 73 1018.1 6.9 N 9.8 0.0 0.0
13:24 26.9 21.7 73 1018.1 6.9 N 9.8 0.0 0.0
13:26 26.9 21.7 73 1018.1 6.9 N 9.8 0.0 0.0
13:26 26.9 21.7 73 1018.1 6.9 N 9.8 0.0 0.0
13:26 26.9 21.7 73 1018.1 6.9 N 9.8 0.0 0.0
13:29 26.9 21.7 73 1018.2 6.0 E 9.2 0.0 0.0
13:29 26.9 21.7 73 1018.2 6.0 E 9.2 0.0 0.0
13:31 26.9 21.7 73 1018.1 6.0 E 9.2 0.0 0.0
13:32 26.9 21.7 73 1018.2 6.0 E 6.9 0.0 0.0
13:32 26.9 21.7 73 1018.2 6.0 E 6.9 0.0 0.0
13:34 26.9 21.7 73 1018.2 6.0 E 6.9 0.0 0.0
13:34 26.9 21.7 73 1018.2 6.0 E 6.9 0.0 0.0
13:36 27.1 21.6 72 1018.1 3.8 N 6.9 0.0 0.0
13:36 27.1 21.6 72 1018.1 3.8 N 6.9 0.0 0.0
13:38 27.1 21.6 72 1018.2 3.8 N 6.0 0.0 0.0
13:38 27.1 21.6 72 1018.2 3.8 N 6.0 0.0 0.0
13:40 27.1 21.6 72 1018.2 3.8 N 6.0 0.0 0.0
13:40 27.1 21.6 72 1018.2 3.8 N 6.0 0.0 0.0
13:42 26.9 21.5 72 1018.2 7.6 N 7.6 0.0 0.0
13:42 26.9 21.5 72 1018.2 7.6 N 7.6 0.0 0.0
13:44 26.9 21.5 72 1018.1 7.6 N 7.6 0.0 0.0
13:44 26.9 21.5 72 1018.1 7.6 N 7.6 0.0 0.0
13:46 27.1 21.6 72 1018.2 8.3 NE 8.3 0.0 0.0
13:46 27.1 21.6 72 1018.2 8.3 NE 8.3 0.0 0.0
13:48 27.1 21.4 71 1018.1 11.4 NE 11.4 0.0 0.0
13:48 27.1 21.4 71 1018.1 11.4 NE 11.4 0.0 0.0
13:50 27.2 21.7 72 1018.0 8.3 E 11.4 0.0 0.0
13:50 27.2 21.7 72 1018.0 8.3 E 11.4 0.0 0.0
13:51 27.4 21.7 71 1018.0 5.4 N 11.4 0.0 0.0
13:53 27.4 21.7 71 1018.0 6.0 N 11.4 0.0 0.0
13:53 27.4 21.7 71 1018.0 6.0 N 11.4 0.0 0.0
13:55 27.6 21.4 69 1017.9 5.4 N 11.4 0.0 0.0
13:55 27.6 21.4 69 1017.9 5.4 N 11.4 0.0 0.0
13:57 27.7 21.8 70 1017.8 7.6 NE 11.4 0.0 0.0
13:57 27.7 21.8 70 1017.8 7.6 NE 11.4 0.0 0.0
13:57 27.7 21.8 70 1017.8 7.6 NE 11.4 0.0 0.0
14:00 27.7 21.3 68 1018.0 8.3 NE 8.3 0.0 0.0
14:00 27.7 21.3 68 1018.0 8.3 NE 8.3 0.0 0.0
14:02 27.7 21.3 68 1017.8 8.3 NE 8.3 0.0 0.0
14:02 27.7 21.3 68 1017.8 8.3 NE 8.3 0.0 0.0
14:04 27.7 21.3 68 1018.0 8.3 NE 8.3 0.0 0.0
14:04 27.7 21.3 68 1018.0 8.3 NE 8.3 0.0 0.0
14:06 27.7 21.5 69 1018.0 6.9 N 8.3 0.0 0.0
14:06 27.7 21.5 69 1018.0 6.9 N 8.3 0.0 0.0
14:08 27.6 21.2 68 1018.0 9.2 NE 9.2 0.0 0.0
14:09 27.6 21.4 69 1017.9 6.9 N 9.2 0.0 0.0
14:09 27.6 21.4 69 1017.9 6.9 N 9.2 0.0 0.0
14:11 27.6 21.4 69 1018.0 6.9 N 9.2 0.0 0.0
14:11 27.6 21.4 69 1018.0 6.9 N 9.2 0.0 0.0
14:13 27.6 21.4 69 1018.0 9.2 N 9.2 0.0 0.0
14:13 27.6 21.4 69 1018.0 9.2 N 9.2 0.0 0.0
14:15 27.7 21.3 68 1018.0 6.9 NE 9.2 0.0 0.0
14:15 27.7 21.3 68 1018.0 6.9 NE 9.2 0.0 0.0
14:15 27.7 21.3 68 1018.0 6.9 NE 9.2 0.0 0.0
14:17 27.7 21.3 68 1018.0 3.8 NE 9.2 0.0 0.0
14:19 27.7 21.3 68 1018.0 4.5 NE 9.2 0.0 0.0
14:19 27.7 21.3 68 1018.0 4.5 NE 9.2 0.0 0.0
14:21 27.8 21.4 68 1018.2 12.1 NE 12.1 0.0 0.0
14:21 27.8 21.4 68 1018.2 12.1 NE 12.1 0.0 0.0
14:23 27.9 21.5 68 1018.0 5.4 NE 12.1 0.0 0.0
14:23 27.9 21.5 68 1018.0 5.4 NE 12.1 0.0 0.0
14:25 28.0 21.3 67 1017.9 7.6 E 12.1 0.0 0.0
14:25 28.0 21.3 67 1017.9 7.6 E 12.1 0.0 0.0
14:27 28.0 21.6 68 1018.0 9.2 N 12.1 0.0 0.0
14:27 28.0 21.6 68 1018.0 9.2 N 12.1 0.0 0.0
14:29 28.0 21.3 67 1018.0 4.5 NE 12.1 0.0 0.0
14:29 28.0 21.3 67 1018.0 4.5 NE 12.1 0.0 0.0
14:31 27.9 21.0 66 1017.9 6.9 NE 12.1 0.0 0.0
14:31 27.9 21.0 66 1017.9 6.9 NE 12.1 0.0 0.0
14:33 28.0 21.6 68 1018.0 9.8 ENE 9.8 0.0 0.0
14:33 28.0 21.6 68 1018.0 9.8 ENE 9.8 0.0 0.0
14:35 28.0 21.3 67 1018.0 8.3 NE 9.8 0.0 0.0
14:35 28.0 21.3 67 1018.0 8.3 NE 9.8 0.0 0.0
14:37 28.1 21.4 67 1017.9 9.8 NE 9.8 0.0 0.0
14:37 28.1 21.4 67 1017.9 9.8 NE 9.8 0.0 0.0
14:39 28.1 21.4 67 1017.9 8.3 NE 10.7 0.0 0.0
14:39 28.1 21.4 67 1017.9 8.3 NE 10.7 0.0 0.0
14:41 28.1 21.2 66 1017.9 5.4 NE 10.7 0.0 0.0
14:42 28.2 21.5 67 1017.9 7.6 N 10.7 0.0 0.0
14:42 28.2 21.5 67 1017.9 7.6 N 10.7 0.0 0.0
14:43 28.2 21.8 68 1017.8 4.5 NE 10.7 0.0 0.0
14:44 28.2 21.8 68 1017.7 3.8 E 10.7 0.0 0.0
14:46 28.3 21.4 66 1017.8 9.2 NNE 10.7 0.0 0.0
14:47 28.3 21.4 66 1017.8 10.7 N 10.7 0.0 0.0
14:48 28.2 21.5 67 1017.7 9.8 NE 10.7 0.0 0.0
14:49 28.2 21.3 66 1017.9 7.6 NE 10.7 0.0 0.0
14:50 28.2 21.5 67 1017.9 8.3 N 10.7 0.0 0.0
14:51 28.1 21.4 67 1017.7 8.3 NE 10.7 0.0 0.0
14:52 28.1 21.2 66 1017.8 8.3 NE 10.7 0.0 0.0
14:53 28.0 21.3 67 1017.9 6.9 N 10.7 0.0 0.0
14:54 28.0 21.6 68 1017.9 6.0 NE 10.7 0.0 0.0
14:55 28.1 21.7 68 1017.9 8.3 N 10.7 0.0 0.0
14:56 28.2 21.5 67 1017.7 10.7 N 10.7 0.0 0.0
14:57 28.2 21.5 67 1017.6 2.2 S 10.7 0.0 0.0
14:58 28.3 21.4 66 1017.7 6.0 N 10.7 0.0 0.0
14:59 28.3 21.6 67 1017.8 8.3 N 10.7 0.0 0.0
15:00 28.3 21.6 67 1017.8 8.3 N 10.7 0.0 0.0
15:01 28.3 21.6 67 1017.9 8.3 N 10.7 0.0 0.0
15:01 28.3 21.6 67 1017.9 8.3 N 10.7 0.0 0.0
15:02 28.4 21.2 65 1017.8 3.8 NE 10.7 0.0 0.0
15:04 28.4 21.5 66 1017.7 8.3 NE 10.7 0.0 0.0
15:05 28.4 21.5 66 1017.8 8.3 NE 10.7 0.0 0.0
15:05 28.4 21.5 66 1017.8 8.3 NE 10.7 0.0 0.0
15:07 28.4 21.5 66 1017.7 6.9 NE 8.3 0.0 0.0
15:08 28.4 21.7 67 1017.7 6.0 NNE 8.3 0.0 0.0
15:09 28.4 21.5 66 1017.8 6.9 NE 8.3 0.0 0.0
15:10 28.4 21.2 65 1017.6 8.3 NE 9.8 0.0 0.0
15:11 28.4 21.0 64 1017.8 10.7 NE 10.7 0.0 0.0
15:12 28.3 21.4 66 1017.7 8.3 NE 10.7 0.0 0.0
15:13 28.3 21.4 66 1017.7 8.3 NE 10.7 0.0 0.0
15:14 28.2 21.3 66 1017.7 6.9 N 10.7 0.0 0.0
15:15 28.2 21.8 68 1017.7 3.8 N 10.7 0.0 0.0
15:15 28.2 21.8 68 1017.7 3.8 N 10.7 0.0 0.0
15:17 28.2 21.5 67 1017.7 4.5 N 10.7 0.0 0.0
15:18 28.2 21.5 67 1017.6 4.5 N 10.7 0.0 0.0
15:19 28.2 21.5 67 1017.6 4.5 N 10.7 0.0 0.0
15:20 28.2 21.5 67 1017.6 4.5 N 10.7 0.0 0.0
15:21 28.2 21.5 67 1017.6 4.5 N 10.7 0.0 0.0
15:22 28.5 21.6 66 1017.6 6.0 NE 8.3 0.0 0.0
15:23 28.5 21.6 66 1017.6 6.0 NE 8.3 0.0 0.0
15:24 28.5 21.1 64 1017.7 9.8 N 9.8 0.0 0.0
15:25 28.5 21.1 64 1017.5 9.8 N 9.8 0.0 0.0
15:26 28.5 21.1 64 1017.5 9.8 N 9.8 0.0 0.0
15:27 28.5 21.1 64 1017.6 9.8 N 9.8 0.0 0.0
15:28 28.5 21.1 64 1017.7 9.8 N 9.8 0.0 0.0
15:29 28.5 21.1 64 1017.6 9.8 N 9.8 0.0 0.0
15:29 28.5 21.1 64 1017.6 9.8 N 9.8 0.0 0.0
15:30 28.5 21.1 64 1017.5 9.8 N 9.8 0.0 0.0
15:32 28.5 21.1 64 1017.7 9.8 N 9.8 0.0 0.0
15:33 28.5 21.6 66 1017.7 9.8 N 9.8 0.0 0.0
15:34 28.5 21.6 66 1017.7 8.3 N 9.8 0.0 0.0
15:35 28.5 21.6 66 1017.6 4.5 NE 9.8 0.0 0.0
15:36 28.5 21.8 67 1017.5 8.3 N 9.8 0.0 0.0
15:37 28.6 21.4 65 1017.7 9.2 NE 9.8 0.0 0.0
15:38 28.5 21.3 65 1017.5 9.8 NE 9.8 0.0 0.0
15:39 28.5 21.3 65 1017.6 7.6 N 9.8 0.0 0.0
15:40 28.5 21.1 64 1017.6 12.1 NE 12.1 0.0 0.0
15:41 28.5 21.1 64 1017.6 12.1 NE 12.1 0.0 0.0
15:42 28.4 21.2 65 1017.7 7.6 NE 12.1 0.0 0.0
15:43 28.3 20.9 64 1017.6 9.8 NE 12.1 0.0 0.0
15:44 28.3 20.9 64 1017.6 10.7 NE 12.1 0.0 0.0
15:45 28.2 20.8 64 1017.5 8.3 NE 12.1 0.0 0.0
15:46 28.1 20.9 65 1017.5 7.6 NE 12.1 0.0 0.0
15:47 28.1 20.9 65 1017.6 10.7 NE 12.1 0.0 0.0
15:47 28.1 20.9 65 1017.6 10.7 NE 12.1 0.0 0.0
15:48 28.0 20.8 65 1017.5 7.6 NE 12.1 0.0 0.0
15:50 28.0 20.8 65 1017.5 11.4 NE 12.1 0.0 0.0
15:51 27.9 20.7 65 1017.7 7.6 NE 11.4 0.0 0.0
15:52 27.8 20.4 64 1017.6 8.3 NE 11.4 0.0 0.0
15:53 27.8 20.6 65 1017.5 6.9 NE 11.4 0.0 0.0
15:54 27.8 21.1 67 1017.5 6.0 NE 11.4 0.0 0.0
15:55 27.8 21.1 67 1017.6 6.0 NE 11.4 0.0 0.0
15:56 27.9 21.5 68 1017.5 6.9 N 11.4 0.0 0.0
15:57 27.9 21.0 66 1017.6 9.8 NE 11.4 0.0 0.0
15:58 28.0 21.3 67 1017.6 5.4 NE 11.4 0.0 0.0
15:58 28.0 21.3 67 1017.6 5.4 NE 11.4 0.0 0.0
16:00 28.0 21.3 67 1017.5 5.4 NE 11.4 0.0 0.0
16:01 28.0 21.3 67 1017.5 5.4 NE 9.8 0.0 0.0
16:02 28.0 21.3 67 1017.6 5.4 NE 9.8 0.0 0.0
16:03 28.0 21.3 67 1017.7 5.4 NE 9.8 0.0 0.0
16:04 28.0 21.3 67 1017.5 5.4 NE 9.8 0.0 0.0
16:05 28.0 21.3 67 1017.6 5.4 NE 9.8 0.0 0.0
16:06 27.9 21.0 66 1017.5 4.5 N 9.8 0.0 0.0
16:07 27.9 21.0 66 1017.6 4.5 N 8.3 0.0 0.0
16:08 27.9 21.0 66 1017.5 4.5 N 5.4 0.0 0.0
16:09 27.9 21.0 66 1017.6 4.5 N 5.4 0.0 0.0
16:09 27.9 21.0 66 1017.6 4.5 N 5.4 0.0 0.0
16:10 27.9 21.0 66 1017.7 4.5 N 5.4 0.0 0.0
16:11 27.9 21.0 66 1017.5 4.5 N 5.4 0.0 0.0
16:13 27.8 21.1 67 1017.6 5.4 N 6.0 0.0 0.0
16:14 27.9 21.0 66 1017.5 5.4 N 6.0 0.0 0.0
16:15 27.9 21.2 67 1017.4 7.6 E 7.6 0.0 0.0
16:16 28.0 21.3 67 1017.5 8.3 NE 8.3 0.0 0.0
16:17 28.1 21.4 67 1017.5 6.0 N 8.3 0.0 0.0
16:18 28.1 20.9 65 1017.5 3.8 N 8.3 0.0 0.0
16:19 28.1 21.2 66 1017.4 6.0 NE 8.3 0.0 0.0
16:20 28.1 21.4 67 1017.5 3.8 N 8.3 0.0 0.0
16:21 28.1 21.4 67 1017.6 3.8 N 8.3 0.0 0.0
16:22 28.1 21.4 67 1017.5 4.5 NNE 8.3 0.0 0.0
16:23 28.1 20.9 65 1017.6 5.4 N 8.3 0.0 0.0
16:24 28.1 21.4 67 1017.5 3.1 NE 8.3 0.0 0.0
16:24 28.1 21.4 67 1017.5 3.1 NE 8.3 0.0 0.0
16:25 28.1 20.9 65 1017.5 3.8 N 8.3 0.0 0.0
16:27 28.1 20.9 65 1017.5 3.8 N 8.3 0.0 0.0
16:28 28.1 20.9 65 1017.3 3.8 N 8.3 0.0 0.0
16:29 28.1 20.9 65 1017.4 3.8 N 8.3 0.0 0.0
16:30 28.1 20.9 65 1017.5 3.8 N 8.3 0.0 0.0
16:31 28.2 21.0 65 1017.5 6.0 N 8.3 0.0 0.0
16:32 28.2 21.3 66 1017.5 6.0 NE 8.3 0.0 0.0
16:33 28.2 21.5 67 1017.5 6.9 N 6.9 0.0 0.0
16:34 28.3 21.6 67 1017.4 5.4 NE 8.3 0.0 0.0
16:35 28.3 21.6 67 1017.5 3.1 NE 8.3 0.0 0.0
16:36 28.3 21.4 66 1017.4 4.5 N 8.3 0.0 0.0
16:36 28.3 21.4 66 1017.4 4.5 N 8.3 0.0 0.0
16:38 28.5 21.6 66 1017.5 3.8 N 9.2 0.0 0.0
16:39 28.5 21.3 65 1017.5 6.9 N 9.2 0.0 0.0
16:40 28.4 21.2 65 1017.5 6.9 W 9.2 0.0 0.0
16:41 28.5 21.6 66 1017.5 5.4 S 9.2 0.0 0.0
16:42 28.4 21.2 65 1017.5 9.2 NE 9.2 0.0 0.0
16:43 28.4 21.5 66 1017.5 3.8 N 9.2 0.0 0.0
16:44 28.4 21.5 66 1017.4 3.8 NW 9.2 0.0 0.0
16:45 28.4 21.5 66 1017.4 3.8 N 9.2 0.0 0.0
16:46 28.3 21.4 66 1017.4 5.4 N 9.2 0.0 0.0
16:47 28.4 21.5 66 1017.4 3.8 S 9.2 0.0 0.0
16:48 28.4 21.2 65 1017.5 5.4 N 9.2 0.0 0.0
16:49 28.2 20.8 64 1017.4 7.6 NE 9.2 0.0 0.0
16:49 28.2 20.8 64 1017.4 7.6 NE 9.2 0.0 0.0
16:50 28.2 21.3 66 1017.5 7.6 N 9.2 0.0 0.0
16:52 28.2 21.3 66 1017.4 3.1 N 9.2 0.0 0.0
16:53 28.2 21.3 66 1017.5 6.0 N 7.6 0.0 0.0
16:54 28.2 21.3 66 1017.4 5.4 N 7.6 0.0 0.0
16:55 28.2 21.3 66 1017.4 7.6 NE 7.6 0.0 0.0
16:56 28.2 21.3 66 1017.5 6.9 NE 7.6 0.0 0.0
16:57 28.1 21.2 66 1017.5 3.1 NW 7.6 0.0 0.0
16:58 28.1 21.4 67 1017.3 5.4 N 7.6 0.0 0.0
16:59 28.0 21.1 66 1017.5 3.8 NE 7.6 0.0 0.0
17:00 28.1 21.4 67 1017.5 5.4 SW 7.6 0.0 0.0
17:01 28.1 21.4 67 1017.4 5.4 SW 7.6 0.0 0.0
17:01 28.1 21.4 67 1017.4 5.4 SW 7.6 0.0 0.0
17:02 28.1 21.4 67 1017.4 4.5 SE 7.6 0.0 0.0
17:04 28.1 21.4 67 1017.4 4.5 SE 7.6 0.0 0.0
17:05 28.1 21.4 67 1017.5 4.5 SE 6.9 0.0 0.0
17:06 28.1 21.4 67 1017.5 4.5 SE 6.0 0.0 0.0
17:07 28.1 21.4 67 1017.5 4.5 SE 6.0 0.0 0.0
17:08 28.1 21.2 66 1017.5 4.5 N 6.0 0.0 0.0
17:09 28.1 21.2 66 1017.3 4.5 S 6.0 0.0 0.0
17:10 28.1 21.2 66 1017.3 3.1 N 6.0 0.0 0.0
17:11 28.0 21.1 66 1017.4 4.5 N 6.0 0.0 0.0
17:12 28.1 21.4 67 1017.4 3.8 SW 4.5 0.0 0.0
17:13 28.1 21.4 67 1017.4 3.8 SW 4.5 0.0 0.0
17:13 28.1 21.4 67 1017.4 3.8 SW 4.5 0.0 0.0
17:14 28.1 21.2 66 1017.4 4.5 N 4.5 0.0 0.0
17:15 28.2 21.3 66 1017.4 6.0 NE 6.0 0.0 0.0
17:17 28.2 21.0 65 1017.5 3.8 N 6.0 0.0 0.0
17:18 28.2 21.0 65 1017.4 3.8 NE 6.0 0.0 0.0
17:19 28.1 21.2 66 1017.4 3.8 NE 6.0 0.0 0.0
17:20 28.1 20.9 65 1017.5 6.0 N 6.0 0.0 0.0
17:21 28.1 20.7 64 1017.4 5.4 NE 6.0 0.0 0.0
17:22 28.1 20.9 65 1017.4 6.0 NE 6.0 0.0 0.0
17:23 28.1 20.7 64 1017.5 3.8 NE 6.0 0.0 0.0
17:24 28.0 20.6 64 1017.5 5.4 NE 6.0 0.0 0.0
17:25 27.9 20.2 63 1017.4 6.0 N 6.0 0.0 0.0
17:26 27.9 20.5 64 1017.5 4.5 NE 6.0 0.0 0.0
17:27 27.7 20.3 64 1017.4 3.8 NW 6.0 0.0 0.0
17:28 27.7 20.6 65 1017.5 4.5 E 6.0 0.0 0.0
17:29 27.6 20.7 66 1017.5 3.1 N 6.0 0.0 0.0
17:30 27.5 20.4 65 1017.5 4.5 NE 6.0 0.0 0.0
17:31 27.5 20.4 65 1017.4 5.4 N 6.0 0.0 0.0
17:32 27.5 20.6 66 1017.5 3.1 N 6.0 0.0 0.0
17:33 27.4 20.3 65 1017.4 4.5 N 6.0 0.0 0.0
17:34 27.4 20.5 66 1017.3 3.8 N 6.0 0.0 0.0
17:34 27.4 20.5 66 1017.3 3.8 N 6.0 0.0 0.0
17:35 27.4 20.5 66 1017.5 4.5 E 6.0 0.0 0.0
17:36 27.4 20.5 66 1017.4 5.4 NE 6.0 0.0 0.0
17:37 27.4 20.5 66 1017.4 3.1 N 6.0 0.0 0.0
17:39 27.4 20.5 66 1017.4 3.1 N 6.0 0.0 0.0
17:40 27.4 20.8 67 1017.5 3.1 N 6.0 0.0 0.0
17:41 27.4 20.5 66 1017.3 3.1 N 5.4 0.0 0.0
17:42 27.4 20.5 66 1017.3 3.8 N 5.4 0.0 0.0
17:43 27.4 20.8 67 1017.4 3.1 N 5.4 0.0 0.0
17:44 27.4 20.5 66 1017.1 5.4 SE 5.4 0.0 0.0
17:45 27.5 20.9 67 1017.4 5.4 N 5.4 0.0 0.0
17:46 27.4 20.5 66 1017.4 3.8 N 5.4 0.0 0.0
17:47 27.5 20.4 65 1017.3 3.8 NW 5.4 0.0 0.0
17:48 27.5 20.6 66 1017.3 3.8 N 5.4 0.0 0.0
17:49 27.5 20.9 67 1017.2 3.1 N 5.4 0.0 0.0
17:50 27.5 20.6 66 1017.3 5.4 NE 5.4 0.0 0.0
17:51 27.6 20.7 66 1017.3 6.9 S 6.9 0.0 0.0
17:52 27.5 20.4 65 1017.2 5.4 NE 6.9 0.0 0.0
17:53 27.5 20.6 66 1017.3 3.1 N 6.9 0.0 0.0
17:54 27.5 20.9 67 1017.3 7.6 NE 7.6 0.0 0.0
17:55 27.5 20.6 66 1017.1 7.6 NE 7.6 0.0 0.0
17:55 27.5 20.6 66 1017.1 7.6 NE 7.6 0.0 0.0
17:56 27.4 20.3 65 1017.2 6.0 NE 7.6 0.0 0.0
17:57 27.4 20.5 66 1017.3 6.0 N 7.6 0.0 0.0
17:58 27.3 20.4 66 1017.2 3.8 N 7.6 0.0 0.0
18:00 27.3 20.4 66 1017.3 7.6 NE 7.6 0.0 0.0
18:01 27.3 20.4 66 1017.3 7.6 NE 7.6 0.0 0.0
18:02 27.3 20.4 66 1017.3 7.6 NE 7.6 0.0 0.0
18:03 27.3 20.4 66 1017.2 7.6 NE 7.6 0.0 0.0
18:04 27.3 20.4 66 1017.3 7.6 NE 7.6 0.0 0.0
18:05 27.3 20.4 66 1017.4 7.6 NE 7.6 0.0 0.0
18:06 26.8 20.2 67 1017.2 3.8 N 7.6 0.0 0.0
18:07 26.8 20.2 67 1017.3 3.1 N 7.6 0.0 0.0
18:07 26.8 20.2 67 1017.3 3.1 N 7.6 0.0 0.0
18:08 26.7 20.1 67 1017.3 3.1 N 7.6 0.0 0.0
18:09 26.7 20.1 67 1017.3 3.8 N 7.6 0.0 0.0
18:10 26.7 20.3 68 1017.2 1.6 N 7.6 0.0 0.0
18:12 26.7 20.8 70 1017.3 2.2 N 7.6 0.0 0.0
18:13 26.7 20.6 69 1017.3 3.8 N 7.6 0.0 0.0
18:14 26.8 20.7 69 1017.3 3.1 N 7.6 0.0 0.0
18:15 26.8 20.4 68 1017.2 5.4 NE 7.6 0.0 0.0
18:16 26.9 20.5 68 1017.3 3.1 NE 5.4 0.0 0.0
18:17 26.9 20.5 68 1017.3 2.2 N 5.4 0.0 0.0
18:18 27.0 20.6 68 1017.4 4.5 NE 5.4 0.0 0.0
18:19 27.0 20.4 67 1017.4 5.4 NE 5.4 0.0 0.0
18:20 27.0 20.4 67 1017.3 7.6 N 7.6 0.0 0.0
18:21 27.0 20.4 67 1017.3 7.6 N 7.6 0.0 0.0
18:22 26.8 19.9 66 1017.2 3.8 N 7.6 0.0 0.0
18:23 26.8 19.9 66 1017.5 4.5 NE 7.6 0.0 0.0
18:24 26.8 20.2 67 1017.5 3.8 NE 7.6 0.0 0.0
18:25 26.7 20.1 67 1017.2 4.5 N 7.6 0.0 0.0
18:26 26.7 20.1 67 1017.3 3.1 N 7.6 0.0 0.0
18:27 26.7 20.1 67 1017.2 7.6 NNE 7.6 0.0 0.0
18:28 26.7 20.1 67 1017.3 4.5 N 7.6 0.0 0.0
18:28 26.7 20.1 67 1017.3 4.5 N 7.6 0.0 0.0
18:29 26.7 20.1 67 1017.3 6.0 NE 7.6 0.0 0.0
18:30 26.7 20.1 67 1017.2 6.9 NE 7.6 0.0 0.0
18:31 26.6 20.0 67 1017.2 6.0 NE 7.6 0.0 0.0
18:33 26.6 20.0 67 1017.3 3.1 N 7.6 0.0 0.0
18:34 26.6 20.0 67 1017.3 4.5 N 7.6 0.0 0.0
18:35 26.5 19.9 67 1017.2 6.9 N 7.6 0.0 0.0
18:36 26.5 19.9 67 1017.2 6.0 NE 7.6 0.0 0.0
18:37 26.4 19.8 67 1017.4 5.4 N 7.6 0.0 0.0
18:38 26.4 19.8 67 1017.4 6.0 N 6.9 0.0 0.0
18:39 26.3 19.7 67 1017.4 6.0 N 6.9 0.0 0.0
18:40 26.2 19.6 67 1017.3 6.0 NE 6.9 0.0 0.0
18:41 26.2 19.6 67 1017.3 6.0 NE 6.9 0.0 0.0
18:42 26.2 19.9 68 1017.2 1.6 N 6.9 0.0 0.0
18:43 26.2 19.9 68 1017.3 2.2 SW 6.9 0.0 0.0
18:44 26.2 19.9 68 1017.2 3.1 NE 6.9 0.0 0.0
18:45 26.2 19.9 68 1017.3 3.8 N 6.0 0.0 0.0
18:46 26.1 19.8 68 1017.3 6.9 NE 6.9 0.0 0.0
18:47 26.2 19.9 68 1017.4 5.4 NW 6.9 0.0 0.0
18:48 26.1 19.8 68 1017.3 8.3 N 8.3 0.0 0.0
18:49 26.1 19.8 68 1017.1 5.4 NE 8.3 0.0 0.0
18:49 26.1 19.8 68 1017.1 5.4 NE 8.3 0.0 0.0
18:50 26.1 19.8 68 1017.2 7.6 N 8.3 0.0 0.0
18:51 26.1 19.8 68 1017.2 3.1 N 8.3 0.0 0.0
18:52 26.1 19.8 68 1017.4 3.1 N 8.3 0.0 0.0
18:53 26.1 19.8 68 1017.4 6.0 NE 8.3 0.0 0.0
18:55 26.0 19.7 68 1017.3 3.8 N 8.3 0.0 0.0
18:56 26.0 19.7 68 1017.3 3.1 N 8.3 0.0 0.0
18:57 26.0 19.9 69 1017.3 3.8 N 8.3 0.0 0.0
18:58 26.0 19.9 69 1017.4 3.1 NW 8.3 0.0 0.0
18:59 26.0 19.9 69 1017.4 3.1 NW 7.6 0.0 0.0
19:00 26.0 19.7 68 1017.3 3.8 NE 7.6 0.0 0.0
19:01 26.0 19.7 68 1017.3 3.8 NE 7.6 0.0 0.0
19:02 26.1 19.8 68 1017.4 2.2 N 6.0 0.0 0.0
19:03 26.1 19.8 68 1017.5 3.1 NE 6.0 0.0 0.0
19:04 26.1 20.0 69 1017.5 2.2 NE 4.5 0.0 0.0
19:05 26.1 20.0 69 1017.5 3.8 SE 4.5 0.0 0.0
19:05 26.1 20.0 69 1017.5 3.8 SE 4.5 0.0 0.0
19:07 26.1 19.8 68 1017.5 3.8 N 3.8 0.0 0.0
19:08 26.2 20.1 69 1017.6 3.1 N 3.8 0.0 0.0
19:09 26.2 19.9 68 1017.5 2.2 N 3.8 0.0 0.0
19:10 26.2 20.1 69 1017.6 2.2 N 3.8 0.0 0.0
19:11 26.2 19.9 68 1017.7 3.1 N 3.8 0.0 0.0
19:12 26.2 19.9 68 1017.5 2.2 NE 4.5 0.0 0.0
19:13 26.3 19.9 68 1017.6 2.2 NW 4.5 0.0 0.0
19:14 26.3 19.9 68 1017.5 3.1 N 4.5 0.0 0.0
19:15 26.3 19.9 68 1017.7 3.1 N 4.5 0.0 0.0
19:16 26.3 19.9 68 1017.7 3.1 N 4.5 0.0 0.0
19:17 26.3 19.9 68 1017.6 3.1 N 4.5 0.0 0.0
19:18 26.3 19.9 68 1017.6 3.1 SE 4.5 0.0 0.0
19:19 26.3 19.9 68 1017.9 2.2 N 4.5 0.0 0.0
19:20 26.3 19.9 68 1017.6 1.6 N 4.5 0.0 0.0
19:21 26.3 20.2 69 1017.7 2.2 N 4.5 0.0 0.0
19:22 26.4 20.0 68 1017.7 3.1 N 3.8 0.0 0.0
19:22 26.4 20.0 68 1017.7 3.1 N 3.8 0.0 0.0
19:23 26.4 20.0 68 1017.7 2.2 N 3.8 0.0 0.0
19:24 26.4 20.3 69 1017.8 1.6 N 3.8 0.0 0.0
19:25 26.4 20.3 69 1017.8 1.6 N 3.8 0.0 0.0
19:26 26.4 20.3 69 1017.6 5.4 NNE 5.4 0.0 0.0
19:27 26.4 20.0 68 1017.7 4.5 NE 5.4 0.0 0.0
19:29 26.4 20.0 68 1017.6 2.2 NE 5.4 0.0 0.0
19:30 26.4 20.0 68 1017.6 2.2 NE 5.4 0.0 0.0
19:31 26.5 20.1 68 1017.5 0.7 NE 5.4 0.0 0.0
19:32 26.5 20.1 68 1017.5 2.2 NE 5.4 0.0 0.0
19:33 26.5 20.1 68 1017.7 1.6 NW 5.4 0.0 0.0
19:34 26.5 20.1 68 1017.5 3.1 NW 5.4 0.0 0.0
19:35 26.5 20.1 68 1017.5 4.5 NE 5.4 0.0 0.0
19:36 26.5 20.1 68 1017.7 3.1 NE 5.4 0.0 0.0
19:37 26.5 20.1 68 1017.6 3.1 NE 4.5 0.0 0.0
19:38 26.5 20.1 68 1017.5 1.6 NE 4.5 0.0 0.0
19:39 26.5 20.1 68 1017.5 2.2 NE 4.5 0.0 0.0
19:40 26.5 20.1 68 1017.7 1.6 NE 4.5 0.0 0.0
19:41 26.5 20.1 68 1017.6 3.1 NE 4.5 0.0 0.0
19:42 26.5 20.1 68 1017.6 3.1 NE 4.5 0.0 0.0
19:43 26.5 20.1 68 1017.7 3.8 NE 4.5 0.0 0.0
19:45 26.5 20.1 68 1017.6 1.6 NE 3.8 0.0 0.0
19:46 26.5 20.4 69 1017.7 2.2 NE 3.8 0.0 0.0
19:47 26.5 20.4 69 1017.7 2.2 NE 3.8 0.0 0.0
19:48 26.5 20.1 68 1017.6 3.1 NE 3.8 0.0 0.0
19:49 26.5 20.1 68 1017.6 2.2 NE 3.8 0.0 0.0
19:50 26.4 20.0 68 1017.6 2.2 NE 3.8 0.0 0.0
19:51 26.4 20.0 68 1017.6 3.1 NE 3.8 0.0 0.0
19:52 26.4 20.0 68 1017.7 3.1 NE 3.8 0.0 0.0
19:52 26.4 20.0 68 1017.7 3.1 NE 3.8 0.0 0.0
19:53 26.4 20.0 68 1017.6 1.6 NE 3.8 0.0 0.0
19:54 26.3 19.9 68 1017.7 2.2 NE 3.1 0.0 0.0
19:55 26.3 19.9 68 1017.7 1.6 NE 3.1 0.0 0.0
19:56 26.3 19.9 68 1017.6 2.2 NE 3.1 0.0 0.0
19:57 26.2 19.9 68 1017.6 2.2 NE 3.1 0.0 0.0
19:59 26.1 19.8 68 1017.4 2.2 NE 3.1 0.0 0.0
20:00 26.1 19.8 68 1017.5 2.2 NE 3.1 0.0 0.0
20:01 26.1 19.8 68 1017.6 2.2 NE 3.1 0.0 0.0
20:02 26.1 19.8 68 1017.8 2.2 NE 3.1 0.0 0.0
20:03 26.1 19.8 68 1017.5 2.2 NE 3.1 0.0 0.0
20:04 26.1 19.8 68 1017.5 2.2 NE 2.2 0.0 0.0
20:05 26.1 19.8 68 1017.4 2.2 NE 2.2 0.0 0.0
20:05 26.1 19.8 68 1017.4 2.2 NE 2.2 0.0 0.0
20:06 25.6 19.5 69 1017.5 3.1 N 3.1 0.0 0.0
20:07 25.6 19.5 69 1017.6 3.8 NE 3.8 0.0 0.0
20:08 25.5 19.4 69 1017.3 2.2 NE 3.8 0.0 0.0
20:10 25.4 19.3 69 1017.2 3.1 NE 3.8 0.0 0.0
20:11 25.3 19.5 70 1017.5 2.2 NE 3.8 0.0 0.0
20:12 25.2 19.4 70 1017.3 2.2 NE 3.8 0.0 0.0
20:13 25.2 19.4 70 1017.4 1.6 NE 3.8 0.0 0.0
20:14 25.2 19.4 70 1017.1 1.6 NE 3.8 0.0 0.0
20:15 25.1 19.3 70 1017.4 1.6 NE 3.8 0.0 0.0
20:16 25.0 19.2 70 1017.4 1.6 NE 3.8 0.0 0.0
20:17 25.0 19.2 70 1017.3 2.2 NE 3.8 0.0 0.0
20:18 24.9 19.1 70 1017.4 2.2 NE 3.1 0.0 0.0
20:19 24.9 19.1 70 1017.4 2.2 NE 3.1 0.0 0.0
20:20 24.8 19.2 71 1017.4 1.6 NE 3.1 0.0 0.0
20:21 24.7 19.1 71 1017.4 2.2 NE 2.2 0.0 0.0
20:22 24.7 19.1 71 1017.4 0.7 NE 2.2 0.0 0.0
20:23 24.6 19.0 71 1017.5 0.7 NE 2.2 0.0 0.0
20:24 24.5 19.1 72 1017.5 3.1 NE 3.1 0.0 0.0
20:25 24.5 19.1 72 1017.3 1.6 NE 3.1 0.0 0.0
20:26 24.4 19.0 72 1017.5 2.2 NE 3.1 0.0 0.0
20:27 24.3 19.0 72 1017.4 2.2 NE 3.1 0.0 0.0
20:28 24.3 19.0 72 1017.5 1.6 NE 3.1 0.0 0.0
20:29 24.3 19.2 73 1017.3 1.6 NE 3.1 0.0 0.0
20:30 24.2 19.1 73 1017.3 1.6 NE 3.1 0.0 0.0
20:30 24.2 19.1 73 1017.3 1.6 NE 3.1 0.0 0.0
20:31 24.2 19.1 73 1017.5 3.1 NE 3.1 0.0 0.0
20:32 24.2 19.1 73 1017.3 1.6 NE 3.1 0.0 0.0
20:33 24.1 19.2 74 1017.4 3.1 N 3.1 0.0 0.0
20:34 24.1 19.2 74 1017.4 2.2 N 3.1 0.0 0.0
20:35 24.0 19.1 74 1017.3 2.2 N 3.1 0.0 0.0
20:37 24.0 19.1 74 1017.4 2.2 N 3.1 0.0 0.0
20:38 23.9 19.0 74 1017.3 2.2 N 3.1 0.0 0.0
20:39 23.9 19.0 74 1017.4 2.2 N 3.1 0.0 0.0
20:40 23.8 18.9 74 1017.4 0.7 N 3.1 0.0 0.0
20:41 23.8 18.9 74 1017.3 1.6 N 3.1 0.0 0.0
20:42 23.8 18.9 74 1017.2 1.6 N 3.1 0.0 0.0
20:43 23.7 18.8 74 1017.3 1.6 N 3.1 0.0 0.0
20:44 23.7 18.8 74 1017.4 0.7 N 3.1 0.0 0.0
20:45 23.6 18.7 74 1017.2 1.6 N 2.2 0.0 0.0
20:46 23.6 18.7 74 1017.2 0.0 N 2.2 0.0 0.0
20:47 23.5 18.6 74 1017.2 1.6 N 2.2 0.0 0.0
20:48 23.5 18.6 74 1017.3 2.2 N 2.2 0.0 0.0
20:49 23.4 18.7 75 1017.2 1.6 N 3.1 0.0 0.0
20:50 23.4 18.7 75 1017.2 2.2 N 3.1 0.0 0.0
20:51 23.3 18.6 75 1017.3 3.1 N 3.1 0.0 0.0
20:52 23.3 18.6 75 1017.3 1.6 N 3.1 0.0 0.0
20:52 23.3 18.6 75 1017.3 1.6 N 3.1 0.0 0.0
20:53 23.2 18.5 75 1017.2 1.6 N 3.1 0.0 0.0
20:54 23.1 18.4 75 1017.1 2.2 N 3.1 0.0 0.0
20:55 23.1 18.4 75 1017.2 3.1 N 3.1 0.0 0.0
20:56 23.1 18.4 75 1017.3 1.6 N 3.1 0.0 0.0
20:58 23.0 18.6 76 1017.2 1.6 N 3.1 0.0 0.0
20:59 23.0 18.6 76 1017.3 2.2 N 3.1 0.0 0.0
21:00 22.9 18.5 76 1017.3 1.6 N 3.1 0.0 0.0
21:01 22.9 18.5 76 1017.3 1.6 N 3.1 0.0 0.0
21:02 22.9 18.5 76 1017.4 1.6 N 3.1 0.0 0.0
21:03 22.9 18.5 76 1017.2 1.6 N 3.1 0.0 0.0
21:04 22.9 18.5 76 1017.3 1.6 N 3.1 0.0 0.0
21:05 22.9 18.5 76 1017.3 1.6 N 3.1 0.0 0.0
21:06 22.6 18.4 77 1017.2 1.6 N 2.2 0.0 0.0
21:06 22.6 18.4 77 1017.2 1.6 N 2.2 0.0 0.0
21:07 22.6 18.4 77 1017.2 2.2 N 2.2 0.0 0.0
21:08 22.5 18.3 77 1017.2 1.6 N 2.2 0.0 0.0
21:09 22.5 18.3 77 1017.2 2.2 NE 2.2 0.0 0.0
21:10 22.4 18.2 77 1017.2 2.2 NE 2.2 0.0 0.0
21:11 22.4 18.2 77 1017.2 2.2 NE 2.2 0.0 0.0
21:13 22.3 18.1 77 1017.4 2.2 NE 3.1 0.0 0.0
21:14 22.3 18.1 77 1017.5 2.2 NE 3.1 0.0 0.0
21:15 22.3 18.3 78 1017.4 3.1 NE 3.1 0.0 0.0
21:16 22.2 18.2 78 1017.4 2.2 N 3.1 0.0 0.0
21:17 22.2 18.2 78 1017.4 2.2 N 3.1 0.0 0.0
21:18 22.2 18.2 78 1017.4 2.2 N 3.1 0.0 0.0
21:19 22.1 18.1 78 1017.5 1.6 N 3.1 0.0 0.0
21:20 22.1 18.1 78 1017.5 1.6 N 3.1 0.0 0.0
21:21 22.0 18.0 78 1017.2 2.2 N 3.1 0.0 0.0
21:21 22.0 18.0 78 1017.2 2.2 N 3.1 0.0 0.0
21:22 22.0 18.0 78 1017.3 2.2 N 3.1 0.0 0.0
21:23 22.0 18.0 78 1017.3 1.6 N 3.1 0.0 0.0
21:25 22.0 18.2 79 1017.5 1.6 N 3.1 0.0 0.0
21:26 21.9 18.1 79 1017.3 2.2 N 3.1 0.0 0.0
21:27 21.9 18.1 79 1017.5 1.6 N 3.1 0.0 0.0
21:28 21.9 18.1 79 1017.4 2.2 N 3.1 0.0 0.0
21:29 21.9 18.1 79 1017.3 1.6 N 3.1 0.0 0.0
21:29 21.9 18.1 79 1017.3 1.6 N 3.1 0.0 0.0
21:30 21.9 18.1 79 1017.5 1.6 N 3.1 0.0 0.0
21:31 21.8 18.0 79 1017.5 0.7 N 2.2 0.0 0.0
21:32 21.8 18.0 79 1017.4 1.6 N 2.2 0.0 0.0
21:33 21.8 18.0 79 1017.3 2.2 N 3.1 0.0 0.0
21:35 21.7 17.9 79 1017.4 1.6 N 3.1 0.0 0.0
21:36 21.7 17.9 79 1017.5 0.7 N 3.1 0.0 0.0
21:37 21.7 17.9 79 1017.4 1.6 N 3.1 0.0 0.0
21:38 21.7 17.9 79 1017.4 0.7 N 3.1 0.0 0.0
21:39 21.6 17.8 79 1017.5 2.2 N 3.1 0.0 0.0
21:40 21.6 17.8 79 1017.4 3.1 NE 3.1 0.0 0.0
21:41 21.6 17.8 79 1017.4 2.2 NE 3.1 0.0 0.0
21:42 21.6 17.8 79 1017.6 2.2 NE 3.1 0.0 0.0
21:43 21.5 17.7 79 1017.4 3.1 E 3.1 0.0 0.0
21:44 21.5 17.7 79 1017.4 3.1 E 3.1 0.0 0.0
21:45 21.5 17.7 79 1017.3 3.1 NNE 3.1 0.0 0.0
21:46 21.5 17.7 79 1017.6 2.2 NNE 3.1 0.0 0.0
21:47 21.5 17.7 79 1017.5 3.1 N 3.1 0.0 0.0
21:48 21.5 17.7 79 1017.4 1.6 N 3.1 0.0 0.0
21:48 21.5 17.7 79 1017.4 1.6 N 3.1 0.0 0.0
21:49 21.4 17.6 79 1017.5 2.2 N 3.1 0.0 0.0
21:50 21.4 17.8 80 1017.5 2.2 N 3.1 0.0 0.0
21:51 21.4 17.6 79 1017.4 1.6 N 3.1 0.0 0.0
21:53 21.4 17.8 80 1017.6 2.2 N 3.1 0.0 0.0
21:54 21.3 17.7 80 1017.5 1.6 N 3.1 0.0 0.0
21:55 21.3 17.7 80 1017.5 1.6 N 3.1 0.0 0.0
21:55 21.3 17.7 80 1017.5 1.6 N 3.1 0.0 0.0
21:56 21.3 17.7 80 1017.6 3.1 N 3.1 0.0 0.0
21:57 21.2 17.6 80 1017.4 2.2 N 3.1 0.0 0.0
21:58 21.2 17.6 80 1017.5 2.2 N 3.1 0.0 0.0
21:59 21.2 17.6 80 1017.5 1.6 N 3.1 0.0 0.0
22:01 21.2 17.6 80 1017.4 1.6 N 3.1 0.0 0.0
22:02 21.2 17.6 80 1017.4 1.6 N 3.1 0.0 0.0
22:03 21.2 17.6 80 1017.4 1.6 N 3.1 0.0 0.0
22:04 21.2 17.6 80 1017.5 1.6 N 3.1 0.0 0.0
22:05 21.2 17.6 80 1017.4 1.6 N 3.1 0.0 0.0
22:06 20.9 17.5 81 1017.4 3.1 N 3.1 0.0 0.0
22:07 20.9 17.5 81 1017.3 2.2 N 3.1 0.0 0.0
22:08 20.9 17.5 81 1017.4 1.6 N 3.1 0.0 0.0
22:08 20.9 17.5 81 1017.4 1.6 N 3.1 0.0 0.0
22:09 20.8 17.4 81 1017.4 1.6 N 3.1 0.0 0.0
22:10 20.8 17.4 81 1017.5 2.2 N 3.1 0.0 0.0
22:11 20.8 17.4 81 1017.5 3.1 N 3.1 0.0 0.0
22:12 20.8 17.4 81 1017.4 3.1 N 3.1 0.0 0.0
22:14 20.7 17.3 81 1017.5 1.6 N 3.1 0.0 0.0
22:15 20.7 17.3 81 1017.5 1.6 N 3.1 0.0 0.0
22:16 20.7 17.5 82 1017.5 2.2 N 3.1 0.0 0.0
22:17 20.7 17.5 82 1017.5 1.6 N 3.1 0.0 0.0
22:18 20.7 17.5 82 1017.5 1.6 N 3.1 0.0 0.0
22:19 20.6 17.4 82 1017.5 2.2 N 3.1 0.0 0.0
22:20 20.6 17.4 82 1017.5 3.1 N 3.1 0.0 0.0
22:21 20.6 17.4 82 1017.5 3.1 N 3.1 0.0 0.0
22:21 20.6 17.4 82 1017.5 3.1 N 3.1 0.0 0.0
22:22 20.6 17.4 82 1017.5 2.2 N 3.1 0.0 0.0
22:24 20.5 17.3 82 1017.5 3.1 N 3.1 0.0 0.0
22:25 20.5 17.3 82 1017.5 2.2 N 3.1 0.0 0.0
22:26 20.5 17.3 82 1017.5 2.2 N 3.1 0.0 0.0
22:27 20.5 17.5 83 1017.5 1.6 N 3.1 0.0 0.0
22:28 20.5 17.5 83 1017.6 1.6 N 3.1 0.0 0.0
22:29 20.4 17.4 83 1017.4 2.2 N 3.1 0.0 0.0
22:29 20.4 17.4 83 1017.4 2.2 N 3.1 0.0 0.0
22:30 20.4 17.4 83 1017.4 2.2 N 3.1 0.0 0.0
22:31 20.4 17.4 83 1017.5 1.6 N 3.1 0.0 0.0
22:33 20.4 17.4 83 1017.7 1.6 N 3.1 0.0 0.0
22:34 20.4 17.4 83 1017.7 1.6 N 3.1 0.0 0.0
22:35 20.4 17.4 83 1017.6 1.6 N 3.1 0.0 0.0
22:36 20.4 17.4 83 1017.5 1.6 N 3.1 0.0 0.0
22:37 20.4 17.4 83 1017.6 2.2 N 2.2 0.0 0.0
22:38 20.4 17.4 83 1017.6 2.2 N 2.2 0.0 0.0
22:39 20.4 17.4 83 1017.6 1.6 N 2.2 0.0 0.0
22:40 20.4 17.6 84 1017.6 1.6 N 2.2 0.0 0.0
22:40 20.4 17.6 84 1017.6 1.6 N 2.2 0.0 0.0
22:41 20.3 17.5 84 1017.8 1.6 N 2.2 0.0 0.0
22:42 20.3 17.5 84 1017.7 1.6 N 2.2 0.0 0.0
22:43 20.3 17.5 84 1017.7 2.2 N 2.2 0.0 0.0
22:45 20.3 17.5 84 1017.5 1.6 N 2.2 0.0 0.0
22:46 20.3 17.5 84 1017.6 2.2 N 2.2 0.0 0.0
22:47 20.3 17.5 84 1017.6 2.2 N 2.2 0.0 0.0
22:48 20.3 17.5 84 1017.5 1.6 N 2.2 0.0 0.0
22:48 20.3 17.5 84 1017.5 1.6 N 2.2 0.0 0.0
22:49 20.3 17.5 84 1017.6 3.1 N 3.1 0.0 0.0
22:50 20.3 17.5 84 1017.5 1.6 N 3.1 0.0 0.0
22:51 20.3 17.5 84 1017.7 2.2 N 3.1 0.0 0.0
22:52 20.3 17.5 84 1017.6 2.2 N 3.1 0.0 0.0
22:54 20.3 17.5 84 1017.6 2.2 N 3.1 0.0 0.0
22:55 20.3 17.5 84 1017.6 1.6 N 3.1 0.0 0.0
22:56 20.3 17.5 84 1017.6 1.6 N 3.1 0.0 0.0
22:57 20.3 17.5 84 1017.5 1.6 N 3.1 0.0 0.0
22:58 20.3 17.5 84 1017.5 1.6 N 3.1 0.0 0.0
22:58 20.3 17.5 84 1017.5 1.6 N 3.1 0.0 0.0
22:58 20.3 17.5 84 1017.5 1.6 N 3.1 0.0 0.0
23:00 20.3 17.5 84 1017.5 1.6 N 3.1 0.0 0.0
23:02 20.3 17.5 84 1017.5 1.6 N 3.1 0.0 0.0
23:03 20.3 17.5 84 1017.6 1.6 N 3.1 0.0 0.0
23:04 20.3 17.5 84 1017.5 1.6 N 3.1 0.0 0.0
23:05 20.3 17.5 84 1017.5 1.6 N 3.1 0.0 0.0
23:05 20.3 17.5 84 1017.5 1.6 N 3.1 0.0 0.0
23:07 20.3 17.5 84 1017.5 0.7 N 3.1 0.0 0.0
23:08 20.3 17.7 85 1017.5 1.6 N 1.6 0.0 0.0
23:09 20.3 17.7 85 1017.5 1.6 N 1.6 0.0 0.0
23:10 20.3 17.7 85 1017.3 2.2 N 2.2 0.0 0.0
23:11 20.3 17.7 85 1017.2 3.1 N 3.1 0.0 0.0
23:12 20.3 17.7 85 1017.3 2.2 N 3.1 0.0 0.0
23:13 20.3 17.7 85 1017.1 2.2 N 3.1 0.0 0.0
23:14 20.3 17.7 85 1017.0 2.2 N 3.1 0.0 0.0
23:15 20.3 17.7 85 1017.3 2.2 N 3.1 0.0 0.0
23:15 20.3 17.7 85 1017.3 2.2 N 3.1 0.0 0.0
23:16 20.3 17.7 85 1017.3 3.8 N 3.8 0.0 0.0
23:17 20.3 17.7 85 1017.6 1.6 N 3.8 0.0 0.0
23:18 20.4 17.8 85 1017.5 0.7 N 3.8 0.0 0.0
23:19 20.4 17.8 85 1017.6 1.6 N 3.8 0.0 0.0
23:21 20.4 17.8 85 1017.7 2.2 N 3.8 0.0 0.0
23:22 20.4 17.8 85 1017.9 2.2 N 3.8 0.0 0.0
23:23 20.4 17.8 85 1017.8 0.7 N 3.8 0.0 0.0
23:24 20.4 17.8 85 1017.8 0.7 N 3.8 0.0 0.0
23:25 20.4 17.8 85 1017.7 0.7 N 3.8 0.0 0.0
23:26 20.4 17.8 85 1017.8 0.0 N 3.8 0.0 0.0
23:27 20.4 17.8 85 1018.0 1.6 N 2.2 0.0 0.0
23:27 20.4 17.8 85 1018.0 1.6 N 2.2 0.0 0.0
23:28 20.4 17.8 85 1017.8 0.7 N 2.2 0.0 0.0
23:29 20.4 17.8 85 1017.7 0.7 N 2.2 0.0 0.0
23:31 20.4 17.8 85 1017.7 2.2 N 2.2 0.0 0.0
23:31 20.4 17.8 85 1017.7 2.2 N 2.2 0.0 0.0
23:32 20.4 17.8 85 1017.7 3.1 N 3.1 0.0 0.0
23:33 20.4 17.8 85 1017.7 2.2 N 3.1 0.0 0.0
23:35 20.4 17.8 85 1017.7 1.6 N 3.1 0.0 0.0
23:36 20.4 17.8 85 1017.6 1.6 N 3.1 0.0 0.0
23:36 20.4 17.8 85 1017.6 1.6 N 3.1 0.0 0.0
23:38 20.4 17.8 85 1017.9 2.2 N 3.1 0.0 0.0
23:38 20.4 17.8 85 1017.9 2.2 N 3.1 0.0 0.0
23:40 20.4 17.8 85 1017.7 2.2 N 3.1 0.0 0.0
23:41 20.4 17.8 85 1017.7 1.6 N 3.1 0.0 0.0
23:41 20.4 17.8 85 1017.7 1.6 N 3.1 0.0 0.0
23:43 20.3 17.9 86 1017.9 1.6 N 3.1 0.0 0.0
23:43 20.3 17.9 86 1017.9 1.6 N 3.1 0.0 0.0
23:44 20.3 17.9 86 1017.8 2.2 N 2.2 0.0 0.0
23:46 20.3 17.9 86 1017.7 2.2 N 2.2 0.0 0.0
23:46 20.3 17.9 86 1017.7 2.2 N 2.2 0.0 0.0
23:46 20.3 17.9 86 1017.7 2.2 N 2.2 0.0 0.0
23:48 20.3 17.9 86 1017.6 2.2 N 2.2 0.0 0.0
23:49 20.3 17.9 86 1017.7 2.2 N 2.2 0.0 0.0
23:50 20.3 17.9 86 1017.8 1.6 N 2.2 0.0 0.0
23:51 20.3 17.9 86 1017.7 1.6 N 2.2 0.0 0.0
23:53 20.3 17.9 86 1017.6 1.6 N 2.2 0.0 0.0
23:54 20.3 17.9 86 1017.8 1.6 N 2.2 0.0 0.0
23:55 20.3 17.9 86 1017.9 1.6 N 2.2 0.0 0.0
23:56 20.3 17.9 86 1017.6 1.6 N 2.2 0.0 0.0
23:56 20.3 17.9 86 1017.6 1.6 N 2.2 0.0 0.0
23:57 20.3 17.9 86 1017.6 1.6 N 2.2 0.0 0.0
23:59 20.3 17.9 86 1017.6 1.6 N 2.2 0.0 0.0

UK - WEATHER STATION TOPSITES - UK World Weather Websites

This is a private weather station, never base important decisions or events on data from this weather station. Although every effort has been made to make the data as accurate as possible it does not meet MetOffice standards. It is proved as a guide of local weather conditions. We accept no liability for any loss which may arise from use of the data.

Copyright © Carnkie Weather 2009 - 2017.